Wetterdaten: Donnerstag, 07.02.2013
Datum Zeit Temp. Aussen +5cm Feuchte Auss BlattFeu 1 Luftdruck Regen Sonnenschein UV Solar Windben
07.02.2013 00:00 1,0 C -0,4 C 98 % 15 lf 1006,2 hPa 0,0 l/m 0 min 0,0 UV-I 0 W/m 2,6 km/h (1 Bft)
07.02.2013 00:02 1,0 C -0,4 C 98 % 15 lf 1006,2 hPa 0,0 l/m 0 min 0,0 UV-I 0 W/m 0,0 km/h (0 Bft)
07.02.2013 00:06 1,0 C -1,0 C 98 % 15 lf 1006,3 hPa 0,0 l/m 0 min 0,0 UV-I 0 W/m 0,0 km/h (0 Bft)
07.02.2013 00:08 1,0 C -1,0 C 98 % 15 lf 1006,3 hPa 0,0 l/m 0 min 0,0 UV-I 0 W/m 0,0 km/h (0 Bft)
07.02.2013 00:10 0,9 C -1,0 C 98 % 15 lf 1006,4 hPa 0,0 l/m 0 min 0,0 UV-I 0 W/m 0,0 km/h (0 Bft)
07.02.2013 00:12 0,9 C -1,0 C 97 % 15 lf 1006,3 hPa 0,0 l/m 0 min 0,0 UV-I 0 W/m 2,6 km/h (1 Bft)
07.02.2013 00:14 0,9 C -1,0 C 97 % 15 lf 1006,3 hPa 0,0 l/m 0 min 0,0 UV-I 0 W/m 0,0 km/h (0 Bft)
07.02.2013 00:16 0,9 C -1,0 C 97 % 15 lf 1006,3 hPa 0,0 l/m 0 min 0,0 UV-I 0 W/m 0,0 km/h (0 Bft)
07.02.2013 00:18 0,9 C -1,0 C 97 % 15 lf 1006,4 hPa 0,0 l/m 0 min 0,0 UV-I 0 W/m 7,7 km/h (2 Bft)
07.02.2013 00:20 0,9 C -1,0 C 97 % 15 lf 1006,4 hPa 0,0 l/m 0 min 0,0 UV-I 0 W/m 0,0 km/h (0 Bft)
07.02.2013 00:22 0,9 C -1,0 C 97 % 15 lf 1006,4 hPa 0,0 l/m 0 min 0,0 UV-I 0 W/m 0,0 km/h (0 Bft)
07.02.2013 00:24 0,8 C -1,0 C 97 % 15 lf 1006,5 hPa 0,0 l/m 0 min 0,0 UV-I 0 W/m 5,1 km/h (1 Bft)
07.02.2013 00:26 0,8 C -1,0 C 97 % 15 lf 1006,5 hPa 0,0 l/m 0 min 0,0 UV-I 0 W/m 7,7 km/h (2 Bft)
07.02.2013 00:28 0,8 C -1,0 C 97 % 15 lf 1006,6 hPa 0,0 l/m 0 min 0,0 UV-I 0 W/m 2,6 km/h (1 Bft)
07.02.2013 00:30 0,8 C -1,0 C 97 % 15 lf 1006,5 hPa 0,0 l/m 0 min 0,0 UV-I 0 W/m 10,3 km/h (2 Bft)
07.02.2013 00:32 0,8 C -0,4 C 97 % 15 lf 1006,6 hPa 0,0 l/m 0 min 0,0 UV-I 0 W/m 5,1 km/h (1 Bft)
07.02.2013 00:34 0,8 C -0,4 C 97 % 15 lf 1006,6 hPa 0,0 l/m 0 min 0,0 UV-I 0 W/m 2,6 km/h (1 Bft)
07.02.2013 00:36 0,8 C -1,0 C 97 % 15 lf 1006,7 hPa 0,0 l/m 0 min 0,0 UV-I 0 W/m 2,6 km/h (1 Bft)
07.02.2013 00:38 0,8 C -1,0 C 97 % 15 lf 1006,6 hPa 0,0 l/m 0 min 0,0 UV-I 0 W/m 2,6 km/h (1 Bft)
07.02.2013 00:40 0,8 C -1,0 C 97 % 15 lf 1006,6 hPa 0,0 l/m 0 min 0,0 UV-I 0 W/m 5,1 km/h (1 Bft)
07.02.2013 00:42 0,8 C -1,0 C 97 % 15 lf 1006,7 hPa 0,0 l/m 0 min 0,0 UV-I 0 W/m 2,6 km/h (1 Bft)
07.02.2013 00:44 0,8 C -1,0 C 97 % 15 lf 1006,7 hPa 0,0 l/m 0 min 0,0 UV-I 0 W/m 7,7 km/h (2 Bft)
07.02.2013 00:46 0,8 C -1,0 C 97 % 15 lf 1006,7 hPa 0,0 l/m 0 min 0,0 UV-I 0 W/m 7,7 km/h (2 Bft)
07.02.2013 00:48 0,8 C -1,0 C 97 % 15 lf 1006,8 hPa 0,0 l/m 0 min 0,0 UV-I 0 W/m 0,0 km/h (0 Bft)
07.02.2013 00:50 0,8 C -1,0 C 97 % 15 lf 1006,8 hPa 0,0 l/m 0 min 0,0 UV-I 0 W/m 7,7 km/h (2 Bft)
07.02.2013 00:52 0,8 C -1,0 C 97 % 15 lf 1006,8 hPa 0,0 l/m 0 min 0,0 UV-I 0 W/m 5,1 km/h (1 Bft)
07.02.2013 00:54 0,7 C -1,0 C 97 % 15 lf 1006,9 hPa 0,0 l/m 0 min 0,0 UV-I 0 W/m 5,1 km/h (1 Bft)
07.02.2013 00:56 0,7 C -1,0 C 97 % 15 lf 1006,9 hPa 0,0 l/m 0 min 0,0 UV-I 0 W/m 5,1 km/h (1 Bft)
07.02.2013 00:58 0,7 C -1,0 C 97 % 15 lf 1006,8 hPa 0,0 l/m 0 min 0,0 UV-I 0 W/m 5,1 km/h (1 Bft)
07.02.2013 01:00 0,7 C -1,0 C 97 % 15 lf 1006,8 hPa 0,0 l/m 0 min 0,0 UV-I 0 W/m 0,0 km/h (0 Bft)
07.02.2013 01:02 0,7 C -1,0 C 97 % 15 lf 1006,8 hPa 0,0 l/m 0 min 0,0 UV-I 0 W/m 0,0 km/h (0 Bft)
07.02.2013 01:06 0,7 C -1,0 C 97 % 15 lf 1006,9 hPa 0,0 l/m 0 min 0,0 UV-I 0 W/m 7,7 km/h (2 Bft)
07.02.2013 01:08 0,7 C -1,0 C 97 % 15 lf 1006,9 hPa 0,0 l/m 0 min 0,0 UV-I 0 W/m 2,6 km/h (1 Bft)
07.02.2013 01:10 0,7 C -0,4 C 97 % 15 lf 1006,9 hPa 0,0 l/m 0 min 0,0 UV-I 0 W/m 2,6 km/h (1 Bft)
07.02.2013 01:12 0,7 C -0,4 C 97 % 15 lf 1006,9 hPa 0,0 l/m 0 min 0,0 UV-I 0 W/m 5,1 km/h (1 Bft)
07.02.2013 01:14 0,7 C -0,4 C 98 % 15 lf 1006,9 hPa 0,0 l/m 0 min 0,0 UV-I 0 W/m 2,6 km/h (1 Bft)
07.02.2013 01:16 0,7 C -0,4 C 98 % 15 lf 1006,9 hPa 0,0 l/m 0 min 0,0 UV-I 0 W/m 0,0 km/h (0 Bft)
07.02.2013 01:18 0,7 C -0,4 C 98 % 15 lf 1007,0 hPa 0,0 l/m 0 min 0,0 UV-I 0 W/m 0,0 km/h (0 Bft)
07.02.2013 01:20 0,7 C -0,4 C 98 % 15 lf 1007,0 hPa 0,0 l/m 0 min 0,0 UV-I 0 W/m 0,0 km/h (0 Bft)
07.02.2013 01:22 0,7 C -0,4 C 98 % 15 lf 1007,0 hPa 0,0 l/m 0 min 0,0 UV-I 0 W/m 15,4 km/h (3 Bft)
07.02.2013 01:24 0,7 C -0,4 C 98 % 15 lf 1007,0 hPa 0,0 l/m 0 min 0,0 UV-I 0 W/m 2,6 km/h (1 Bft)
07.02.2013 01:26 0,8 C -0,4 C 98 % 15 lf 1007,0 hPa 0,0 l/m 0 min 0,0 UV-I 0 W/m 0,0 km/h (0 Bft)
07.02.2013 01:28 0,8 C -0,4 C 98 % 15 lf 1006,9 hPa 0,0 l/m 0 min 0,0 UV-I 0 W/m 5,1 km/h (1 Bft)
07.02.2013 01:30 0,8 C -0,4 C 98 % 15 lf 1007,0 hPa 0,0 l/m 0 min 0,0 UV-I 0 W/m 5,1 km/h (1 Bft)
07.02.2013 01:32 0,8 C -0,4 C 98 % 15 lf 1007,0 hPa 0,0 l/m 0 min 0,0 UV-I 0 W/m 0,0 km/h (0 Bft)
07.02.2013 01:34 0,8 C -0,4 C 98 % 15 lf 1007,0 hPa 0,0 l/m 0 min 0,0 UV-I 0 W/m 2,6 km/h (1 Bft)
07.02.2013 01:36 0,8 C -0,4 C 98 % 15 lf 1007,0 hPa 0,0 l/m 0 min 0,0 UV-I 0 W/m 5,1 km/h (1 Bft)
07.02.2013 01:38 0,8 C -0,4 C 98 % 15 lf 1007,0 hPa 0,0 l/m 0 min 0,0 UV-I 0 W/m 0,0 km/h (0 Bft)
07.02.2013 01:40 0,9 C -0,4 C 98 % 15 lf 1007,0 hPa 0,0 l/m 0 min 0,0 UV-I 0 W/m 0,0 km/h (0 Bft)
07.02.2013 01:42 0,9 C -0,4 C 98 % 15 lf 1007,0 hPa 0,0 l/m 0 min 0,0 UV-I 0 W/m 7,7 km/h (2 Bft)
07.02.2013 01:44 0,9 C -0,4 C 98 % 15 lf 1007,1 hPa 0,0 l/m 0 min 0,0 UV-I 0 W/m 2,6 km/h (1 Bft)
07.02.2013 01:46 0,9 C -0,4 C 98 % 15 lf 1007,1 hPa 0,0 l/m 0 min 0,0 UV-I 0 W/m 2,6 km/h (1 Bft)
07.02.2013 01:48 0,9 C -0,4 C 98 % 15 lf 1007,1 hPa 0,0 l/m 0 min 0,0 UV-I 0 W/m 0,0 km/h (0 Bft)
07.02.2013 01:50 0,9 C -0,4 C 98 % 15 lf 1007,1 hPa 0,0 l/m 0 min 0,0 UV-I 0 W/m 2,6 km/h (1 Bft)
07.02.2013 01:52 0,9 C -0,4 C 98 % 14 lf 1007,2 hPa 0,0 l/m 0 min 0,0 UV-I 0 W/m 2,6 km/h (1 Bft)
07.02.2013 01:54 0,9 C -0,4 C 98 % 14 lf 1007,1 hPa 0,0 l/m 0 min 0,0 UV-I 0 W/m 7,7 km/h (2 Bft)
07.02.2013 01:56 0,9 C -0,4 C 98 % 14 lf 1007,1 hPa 0,0 l/m 0 min 0,0 UV-I 0 W/m 5,1 km/h (1 Bft)
07.02.2013 01:58 0,9 C -0,4 C 98 % 14 lf 1007,1 hPa 0,0 l/m 0 min 0,0 UV-I 0 W/m 2,6 km/h (1 Bft)
07.02.2013 02:00 0,9 C -0,4 C 98 % 14 lf 1007,1 hPa 0,0 l/m 0 min 0,0 UV-I 0 W/m 5,1 km/h (1 Bft)
07.02.2013 02:02 0,9 C -0,4 C 98 % 14 lf 1007,1 hPa 0,0 l/m 0 min 0,0 UV-I 0 W/m 5,1 km/h (1 Bft)
07.02.2013 02:06 0,9 C -0,4 C 98 % 13 lf 1007,1 hPa 0,0 l/m 0 min 0,0 UV-I 0 W/m 5,1 km/h (1 Bft)
07.02.2013 02:08 0,9 C -0,4 C 98 % 12 lf 1007,1 hPa 0,0 l/m 0 min 0,0 UV-I 0 W/m 7,7 km/h (2 Bft)
07.02.2013 02:10 1,0 C -0,4 C 98 % 10 lf 1007,1 hPa 0,0 l/m 0 min 0,0 UV-I 0 W/m 2,6 km/h (1 Bft)
07.02.2013 02:12 1,0 C -0,4 C 98 % 8 lf 1007,2 hPa 0,0 l/m 0 min 0,0 UV-I 0 W/m 5,1 km/h (1 Bft)
07.02.2013 02:14 1,0 C -0,4 C 98 % 6 lf 1007,2 hPa 0,0 l/m 0 min 0,0 UV-I 0 W/m 2,6 km/h (1 Bft)
07.02.2013 02:16 1,0 C -0,4 C 98 % 4 lf 1007,2 hPa 0,0 l/m 0 min 0,0 UV-I 0 W/m 5,1 km/h (1 Bft)
07.02.2013 02:18 1,0 C -0,4 C 98 % 3 lf 1007,2 hPa 0,0 l/m 0 min 0,0 UV-I 0 W/m 7,7 km/h (2 Bft)
07.02.2013 02:20 1,0 C -0,4 C 98 % 2 lf 1007,2 hPa 0,0 l/m 0 min 0,0 UV-I 0 W/m 15,4 km/h (3 Bft)
07.02.2013 02:22 1,0 C -0,4 C 98 % 2 lf 1007,2 hPa 0,0 l/m 0 min 0,0 UV-I 0 W/m 7,7 km/h (2 Bft)
07.02.2013 02:24 1,0 C -0,4 C 98 % 2 lf 1007,3 hPa 0,0 l/m 0 min 0,0 UV-I 0 W/m 2,6 km/h (1 Bft)
07.02.2013 02:26 1,0 C -0,4 C 98 % 2 lf 1007,2 hPa 0,0 l/m 0 min 0,0 UV-I 0 W/m 7,7 km/h (2 Bft)
07.02.2013 02:28 0,9 C -0,4 C 98 % 2 lf 1007,3 hPa 0,0 l/m 0 min 0,0 UV-I 0 W/m 5,1 km/h (1 Bft)
07.02.2013 02:30 0,9 C -0,4 C 98 % 2 lf 1007,3 hPa 0,0 l/m 0 min 0,0 UV-I 0 W/m 2,6 km/h (1 Bft)
07.02.2013 02:32 0,9 C -0,4 C 98 % 2 lf 1007,3 hPa 0,0 l/m 0 min 0,0 UV-I 0 W/m 0,0 km/h (0 Bft)
07.02.2013 02:34 0,9 C -1,0 C 98 % 2 lf 1007,3 hPa 0,0 l/m 0 min 0,0 UV-I 0 W/m 2,6 km/h (1 Bft)
07.02.2013 02:36 0,9 C -1,0 C 98 % 3 lf 1007,3 hPa 0,0 l/m 0 min 0,0 UV-I 0 W/m 5,1 km/h (1 Bft)
07.02.2013 02:38 0,8 C -0,4 C 98 % 3 lf 1007,3 hPa 0,0 l/m 0 min 0,0 UV-I 0 W/m 2,6 km/h (1 Bft)
07.02.2013 02:40 0,9 C -0,4 C 98 % 3 lf 1007,3 hPa 0,0 l/m 0 min 0,0 UV-I 0 W/m 2,6 km/h (1 Bft)
07.02.2013 02:42 0,8 C -0,4 C 98 % 3 lf 1007,3 hPa 0,0 l/m 0 min 0,0 UV-I 0 W/m 5,1 km/h (1 Bft)
07.02.2013 02:44 0,8 C -0,4 C 97 % 3 lf 1007,3 hPa 0,0 l/m 0 min 0,0 UV-I 0 W/m 7,7 km/h (2 Bft)
07.02.2013 02:46 0,8 C -0,4 C 97 % 3 lf 1007,5 hPa 0,0 l/m 0 min 0,0 UV-I 0 W/m 5,1 km/h (1 Bft)
07.02.2013 02:48 0,8 C -0,4 C 97 % 3 lf 1007,5 hPa 0,0 l/m 0 min 0,0 UV-I 0 W/m 5,1 km/h (1 Bft)
07.02.2013 02:50 0,8 C -1,0 C 97 % 3 lf 1007,5 hPa 0,0 l/m 0 min 0,0 UV-I 0 W/m 2,6 km/h (1 Bft)
07.02.2013 02:52 0,8 C -0,4 C 97 % 3 lf 1007,5 hPa 0,0 l/m 0 min 0,0 UV-I 0 W/m 2,6 km/h (1 Bft)
07.02.2013 02:54 0,8 C -1,0 C 97 % 3 lf 1007,4 hPa 0,0 l/m 0 min 0,0 UV-I 0 W/m 7,7 km/h (2 Bft)
07.02.2013 02:56 0,8 C -1,0 C 97 % 3 lf 1007,5 hPa 0,0 l/m 0 min 0,0 UV-I 0 W/m 5,1 km/h (1 Bft)
07.02.2013 02:58 0,8 C -1,0 C 97 % 3 lf 1007,5 hPa 0,0 l/m 0 min 0,0 UV-I 0 W/m 5,1 km/h (1 Bft)
07.02.2013 03:00 0,8 C -1,0 C 97 % 3 lf 1007,5 hPa 0,0 l/m 0 min 0,0 UV-I 0 W/m 2,6 km/h (1 Bft)
07.02.2013 03:02 0,8 C -1,0 C 97 % 3 lf 1007,5 hPa 0,0 l/m 0 min 0,0 UV-I 0 W/m 2,6 km/h (1 Bft)
07.02.2013 03:05 0,7 C -1,0 C 97 % 3 lf 1007,5 hPa 0,0 l/m 0 min 0,0 UV-I 0 W/m 5,1 km/h (1 Bft)
07.02.2013 03:08 0,7 C -1,0 C 97 % 3 lf 1007,5 hPa 0,0 l/m 0 min 0,0 UV-I 0 W/m 5,1 km/h (1 Bft)
07.02.2013 03:10 0,7 C -1,0 C 97 % 3 lf 1007,6 hPa 0,0 l/m 0 min 0,0 UV-I 0 W/m 7,7 km/h (2 Bft)
07.02.2013 03:12 0,7 C -1,0 C 97 % 4 lf 1007,6 hPa 0,0 l/m 0 min 0,0 UV-I 0 W/m 12,9 km/h (3 Bft)
07.02.2013 03:14 0,7 C -1,0 C 97 % 3 lf 1007,5 hPa 0,0 l/m 0 min 0,0 UV-I 0 W/m 7,7 km/h (2 Bft)
07.02.2013 03:16 0,7 C -1,0 C 97 % 3 lf 1007,5 hPa 0,0 l/m 0 min 0,0 UV-I 0 W/m 5,1 km/h (1 Bft)
07.02.2013 03:18 0,7 C -1,0 C 97 % 3 lf 1007,5 hPa 0,0 l/m 0 min 0,0 UV-I 0 W/m 0,0 km/h (0 Bft)
07.02.2013 03:20 0,7 C -1,0 C 98 % 4 lf 1007,5 hPa 0,0 l/m 0 min 0,0 UV-I 0 W/m 5,1 km/h (1 Bft)
07.02.2013 03:22 0,7 C -1,0 C 98 % 4 lf 1007,6 hPa 0,0 l/m 0 min 0,0 UV-I 0 W/m 7,7 km/h (2 Bft)
07.02.2013 03:24 0,7 C -1,0 C 98 % 4 lf 1007,5 hPa 0,0 l/m 0 min 0,0 UV-I 0 W/m 5,1 km/h (1 Bft)
07.02.2013 03:26 0,7 C -1,0 C 98 % 3 lf 1007,5 hPa 0,0 l/m 0 min 0,0 UV-I 0 W/m 10,3 km/h (2 Bft)
07.02.2013 03:28 0,7 C -0,4 C 98 % 3 lf 1007,6 hPa 0,0 l/m 0 min 0,0 UV-I 0 W/m 7,7 km/h (2 Bft)
07.02.2013 03:30 0,7 C -1,0 C 97 % 3 lf 1007,6 hPa 0,0 l/m 0 min 0,0 UV-I 0 W/m 7,7 km/h (2 Bft)
07.02.2013 03:32 0,7 C -1,0 C 98 % 3 lf 1007,5 hPa 0,0 l/m 0 min 0,0 UV-I 0 W/m 7,7 km/h (2 Bft)
07.02.2013 03:34 0,7 C -1,0 C 98 % 3 lf 1007,5 hPa 0,0 l/m 0 min 0,0 UV-I 0 W/m 0,0 km/h (0 Bft)
07.02.2013 03:36 0,7 C -1,0 C 98 % 3 lf 1007,5 hPa 0,0 l/m 0 min 0,0 UV-I 0 W/m 10,3 km/h (2 Bft)
07.02.2013 03:38 0,7 C -1,0 C 98 % 3 lf 1007,5 hPa 0,0 l/m 0 min 0,0 UV-I 0 W/m 5,1 km/h (1 Bft)
07.02.2013 03:40 0,7 C -1,0 C 98 % 3 lf 1007,5 hPa 0,0 l/m 0 min 0,0 UV-I 0 W/m 7,7 km/h (2 Bft)
07.02.2013 03:42 0,7 C -1,0 C 98 % 3 lf 1007,5 hPa 0,0 l/m 0 min 0,0 UV-I 0 W/m 5,1 km/h (1 Bft)
07.02.2013 03:44 0,6 C -1,0 C 98 % 3 lf 1007,5 hPa 0,0 l/m 0 min 0,0 UV-I 0 W/m 2,6 km/h (1 Bft)
07.02.2013 03:46 0,6 C -1,0 C 98 % 3 lf 1007,6 hPa 0,0 l/m 0 min 0,0 UV-I 0 W/m 2,6 km/h (1 Bft)
07.02.2013 03:48 0,6 C -1,0 C 98 % 3 lf 1007,5 hPa 0,0 l/m 0 min 0,0 UV-I 0 W/m 5,1 km/h (1 Bft)
07.02.2013 03:50 0,6 C -1,0 C 98 % 3 lf 1007,5 hPa 0,0 l/m 0 min 0,0 UV-I 0 W/m 7,7 km/h (2 Bft)
07.02.2013 03:52 0,6 C -1,0 C 98 % 3 lf 1007,5 hPa 0,0 l/m 0 min 0,0 UV-I 0 W/m 5,1 km/h (1 Bft)
07.02.2013 03:54 0,6 C -1,0 C 98 % 3 lf 1007,5 hPa 0,0 l/m 0 min 0,0 UV-I 0 W/m 7,7 km/h (2 Bft)
07.02.2013 03:56 0,6 C -1,0 C 98 % 3 lf 1007,6 hPa 0,0 l/m 0 min 0,0 UV-I 0 W/m 7,7 km/h (2 Bft)
07.02.2013 03:58 0,6 C -1,0 C 98 % 3 lf 1007,6 hPa 0,0 l/m 0 min 0,0 UV-I 0 W/m 5,1 km/h (1 Bft)
07.02.2013 04:00 0,6 C -1,0 C 98 % 3 lf 1007,7 hPa 0,0 l/m 0 min 0,0 UV-I 0 W/m 7,7 km/h (2 Bft)
07.02.2013 04:02 0,6 C -1,0 C 98 % 3 lf 1007,6 hPa 0,0 l/m 0 min 0,0 UV-I 0 W/m 2,6 km/h (1 Bft)
07.02.2013 04:06 0,6 C -1,0 C 97 % 3 lf 1007,7 hPa 0,0 l/m 0 min 0,0 UV-I 0 W/m 7,7 km/h (2 Bft)
07.02.2013 04:08 0,6 C -0,4 C 97 % 2 lf 1007,7 hPa 0,0 l/m 0 min 0,0 UV-I 0 W/m 10,3 km/h (2 Bft)
07.02.2013 04:10 0,6 C -0,4 C 98 % 1 lf 1007,7 hPa 0,0 l/m 0 min 0,0 UV-I 0 W/m 12,9 km/h (3 Bft)
07.02.2013 04:12 0,6 C -0,4 C 98 % 1 lf 1007,7 hPa 0,0 l/m 0 min 0,0 UV-I 0 W/m 5,1 km/h (1 Bft)
07.02.2013 04:14 0,7 C -0,4 C 98 % 0 lf 1007,7 hPa 0,0 l/m 0 min 0,0 UV-I 0 W/m 5,1 km/h (1 Bft)
07.02.2013 04:16 0,7 C -0,4 C 98 % 0 lf 1007,8 hPa 0,0 l/m 0 min 0,0 UV-I 0 W/m 2,6 km/h (1 Bft)
07.02.2013 04:18 0,7 C -0,4 C 98 % 3 lf 1007,7 hPa 0,0 l/m 0 min 0,0 UV-I 0 W/m 5,1 km/h (1 Bft)
07.02.2013 04:20 0,7 C -0,4 C 98 % 11 lf 1007,8 hPa 0,0 l/m 0 min 0,0 UV-I 0 W/m 12,9 km/h (3 Bft)
07.02.2013 04:22 0,7 C -0,4 C 98 % 14 lf 1007,8 hPa 0,0 l/m 0 min 0,0 UV-I 0 W/m 12,9 km/h (3 Bft)
07.02.2013 04:24 0,8 C -0,4 C 98 % 15 lf 1007,8 hPa 0,0 l/m 0 min 0,0 UV-I 0 W/m 10,3 km/h (2 Bft)
07.02.2013 04:26 0,8 C -0,4 C 98 % 15 lf 1007,7 hPa 0,0 l/m 0 min 0,0 UV-I 0 W/m 10,3 km/h (2 Bft)
07.02.2013 04:28 0,8 C -0,4 C 98 % 15 lf 1007,8 hPa 0,0 l/m 0 min 0,0 UV-I 0 W/m 10,3 km/h (2 Bft)
07.02.2013 04:30 0,8 C -0,4 C 98 % 15 lf 1007,8 hPa 0,0 l/m 0 min 0,0 UV-I 0 W/m 12,9 km/h (3 Bft)
07.02.2013 04:32 0,9 C -0,4 C 98 % 15 lf 1007,8 hPa 0,0 l/m 0 min 0,0 UV-I 0 W/m 10,3 km/h (2 Bft)
07.02.2013 04:34 0,9 C -0,4 C 98 % 15 lf 1007,8 hPa 0,0 l/m 0 min 0,0 UV-I 0 W/m 7,7 km/h (2 Bft)
07.02.2013 04:36 0,9 C -0,4 C 98 % 15 lf 1007,7 hPa 0,0 l/m 0 min 0,0 UV-I 0 W/m 5,1 km/h (1 Bft)
07.02.2013 04:38 0,9 C -0,4 C 98 % 15 lf 1007,8 hPa 0,0 l/m 0 min 0,0 UV-I 0 W/m 2,6 km/h (1 Bft)
07.02.2013 04:40 0,9 C -0,4 C 98 % 15 lf 1007,8 hPa 0,0 l/m 0 min 0,0 UV-I 0 W/m 7,7 km/h (2 Bft)
07.02.2013 04:42 0,9 C -0,4 C 98 % 15 lf 1007,8 hPa 0,0 l/m 0 min 0,0 UV-I 0 W/m 7,7 km/h (2 Bft)
07.02.2013 04:44 0,9 C -0,4 C 98 % 15 lf 1007,8 hPa 0,0 l/m 0 min 0,0 UV-I 0 W/m 2,6 km/h (1 Bft)
07.02.2013 04:46 0,9 C -0,4 C 98 % 15 lf 1007,7 hPa 0,0 l/m 0 min 0,0 UV-I 0 W/m 7,7 km/h (2 Bft)
07.02.2013 04:48 0,9 C -0,4 C 98 % 15 lf 1007,8 hPa 0,0 l/m 0 min 0,0 UV-I 0 W/m 10,3 km/h (2 Bft)
07.02.2013 04:50 0,9 C -0,4 C 98 % 15 lf 1007,8 hPa 0,0 l/m 0 min 0,0 UV-I 0 W/m 10,3 km/h (2 Bft)
07.02.2013 04:52 0,9 C -0,4 C 98 % 14 lf 1007,8 hPa 0,0 l/m 0 min 0,0 UV-I 0 W/m 12,9 km/h (3 Bft)
07.02.2013 04:54 0,9 C -0,4 C 98 % 14 lf 1007,8 hPa 0,0 l/m 0 min 0,0 UV-I 0 W/m 12,9 km/h (3 Bft)
07.02.2013 04:56 0,9 C -0,4 C 98 % 14 lf 1007,8 hPa 0,0 l/m 0 min 0,0 UV-I 0 W/m 12,9 km/h (3 Bft)
07.02.2013 04:58 0,9 C -0,4 C 98 % 14 lf 1007,8 hPa 0,0 l/m 0 min 0,0 UV-I 0 W/m 7,7 km/h (2 Bft)
07.02.2013 05:00 0,9 C -0,4 C 98 % 14 lf 1007,8 hPa 0,0 l/m 0 min 0,0 UV-I 0 W/m 12,9 km/h (3 Bft)
07.02.2013 05:02 0,9 C -0,4 C 98 % 14 lf 1007,8 hPa 0,0 l/m 0 min 0,0 UV-I 0 W/m 12,9 km/h (3 Bft)
07.02.2013 05:06 0,9 C -0,4 C 98 % 14 lf 1007,9 hPa 0,0 l/m 0 min 0,0 UV-I 0 W/m 7,7 km/h (2 Bft)
07.02.2013 05:08 0,9 C -0,4 C 98 % 13 lf 1007,8 hPa 0,0 l/m 0 min 0,0 UV-I 0 W/m 5,1 km/h (1 Bft)
07.02.2013 05:10 0,9 C -0,4 C 97 % 13 lf 1007,8 hPa 0,0 l/m 0 min 0,0 UV-I 0 W/m 7,7 km/h (2 Bft)
07.02.2013 05:12 0,9 C -0,4 C 97 % 13 lf 1007,8 hPa 0,0 l/m 0 min 0,0 UV-I 0 W/m 7,7 km/h (2 Bft)
07.02.2013 05:14 0,8 C -0,4 C 97 % 13 lf 1007,9 hPa 0,0 l/m 0 min 0,0 UV-I 0 W/m 10,3 km/h (2 Bft)
07.02.2013 05:16 0,9 C -0,4 C 97 % 12 lf 1007,8 hPa 0,0 l/m 0 min 0,0 UV-I 0 W/m 15,4 km/h (3 Bft)
07.02.2013 05:18 0,9 C -0,4 C 97 % 12 lf 1007,9 hPa 0,0 l/m 0 min 0,0 UV-I 0 W/m 10,3 km/h (2 Bft)
07.02.2013 05:20 0,9 C -0,4 C 97 % 10 lf 1007,9 hPa 0,0 l/m 0 min 0,0 UV-I 0 W/m 10,3 km/h (2 Bft)
07.02.2013 05:22 0,9 C -0,4 C 97 % 9 lf 1007,9 hPa 0,0 l/m 0 min 0,0 UV-I 0 W/m 12,9 km/h (3 Bft)
07.02.2013 05:24 0,9 C -0,4 C 97 % 7 lf 1007,9 hPa 0,0 l/m 0 min 0,0 UV-I 0 W/m 7,7 km/h (2 Bft)
07.02.2013 05:26 0,9 C -0,4 C 97 % 4 lf 1008,1 hPa 0,0 l/m 0 min 0,0 UV-I 0 W/m 10,3 km/h (2 Bft)
07.02.2013 05:28 0,9 C -0,4 C 97 % 3 lf 1007,9 hPa 0,0 l/m 0 min 0,0 UV-I 0 W/m 10,3 km/h (2 Bft)
07.02.2013 05:30 0,9 C -0,4 C 97 % 2 lf 1008,0 hPa 0,0 l/m 0 min 0,0 UV-I 0 W/m 15,4 km/h (3 Bft)
07.02.2013 05:32 0,9 C -0,4 C 97 % 1 lf 1008,0 hPa 0,0 l/m 0 min 0,0 UV-I 0 W/m 10,3 km/h (2 Bft)
07.02.2013 05:34 0,9 C -0,4 C 97 % 1 lf 1008,0 hPa 0,0 l/m 0 min 0,0 UV-I 0 W/m 12,9 km/h (3 Bft)
07.02.2013 05:36 0,9 C -0,4 C 97 % 0 lf 1008,0 hPa 0,0 l/m 0 min 0,0 UV-I 0 W/m 5,1 km/h (1 Bft)
07.02.2013 05:38 0,8 C -0,4 C 97 % 0 lf 1008,1 hPa 0,0 l/m 0 min 0,0 UV-I 0 W/m 5,1 km/h (1 Bft)
07.02.2013 05:40 0,8 C -0,4 C 97 % 0 lf 1008,1 hPa 0,0 l/m 0 min 0,0 UV-I 0 W/m 10,3 km/h (2 Bft)
07.02.2013 05:42 0,8 C -0,4 C 97 % 0 lf 1008,0 hPa 0,0 l/m 0 min 0,0 UV-I 0 W/m 15,4 km/h (3 Bft)
07.02.2013 05:44 0,8 C -0,4 C 97 % 0 lf 1008,1 hPa 0,0 l/m 0 min 0,0 UV-I 0 W/m 12,9 km/h (3 Bft)
07.02.2013 05:46 0,8 C -0,4 C 97 % 0 lf 1008,1 hPa 0,0 l/m 0 min 0,0 UV-I 0 W/m 10,3 km/h (2 Bft)
07.02.2013 05:48 0,8 C -0,4 C 97 % 0 lf 1008,2 hPa 0,0 l/m 0 min 0,0 UV-I 0 W/m 5,1 km/h (1 Bft)
07.02.2013 05:50 0,8 C -0,4 C 97 % 0 lf 1008,1 hPa 0,0 l/m 0 min 0,0 UV-I 0 W/m 5,1 km/h (1 Bft)
07.02.2013 05:52 0,8 C -0,4 C 97 % 0 lf 1008,0 hPa 0,0 l/m 0 min 0,0 UV-I 0 W/m 5,1 km/h (1 Bft)
07.02.2013 05:54 0,8 C -0,4 C 97 % 1 lf 1008,1 hPa 0,0 l/m 0 min 0,0 UV-I 0 W/m 10,3 km/h (2 Bft)
07.02.2013 05:56 0,8 C -0,4 C 97 % 2 lf 1008,2 hPa 0,0 l/m 0 min 0,0 UV-I 0 W/m 7,7 km/h (2 Bft)
07.02.2013 05:58 0,9 C -0,4 C 97 % 1 lf 1008,1 hPa 0,0 l/m 0 min 0,0 UV-I 0 W/m 7,7 km/h (2 Bft)
07.02.2013 06:00 0,9 C -0,4 C 97 % 1 lf 1008,1 hPa 0,0 l/m 0 min 0,0 UV-I 0 W/m 7,7 km/h (2 Bft)
07.02.2013 06:02 0,9 C -0,4 C 97 % 0 lf 1008,2 hPa 0,0 l/m 0 min 0,0 UV-I 0 W/m 15,4 km/h (3 Bft)
07.02.2013 06:06 0,9 C -0,4 C 97 % 0 lf 1008,2 hPa 0,0 l/m 0 min 0,0 UV-I 0 W/m 7,7 km/h (2 Bft)
07.02.2013 06:08 0,9 C -0,4 C 97 % 0 lf 1008,1 hPa 0,0 l/m 0 min 0,0 UV-I 0 W/m 10,3 km/h (2 Bft)
07.02.2013 06:10 0,9 C -0,4 C 97 % 0 lf 1008,1 hPa 0,0 l/m 0 min 0,0 UV-I 0 W/m 5,1 km/h (1 Bft)
07.02.2013 06:12 0,9 C -0,4 C 97 % 0 lf 1008,1 hPa 0,0 l/m 0 min 0,0 UV-I 0 W/m 10,3 km/h (2 Bft)
07.02.2013 06:14 0,9 C -0,4 C 97 % 0 lf 1008,1 hPa 0,0 l/m 0 min 0,0 UV-I 0 W/m 7,7 km/h (2 Bft)
07.02.2013 06:16 0,9 C -0,4 C 97 % 0 lf 1008,3 hPa 0,0 l/m 0 min 0,0 UV-I 0 W/m 2,6 km/h (1 Bft)
07.02.2013 06:18 0,9 C -0,4 C 97 % 0 lf 1008,2 hPa 0,0 l/m 0 min 0,0 UV-I 0 W/m 7,7 km/h (2 Bft)
07.02.2013 06:20 0,9 C -0,4 C 97 % 0 lf 1008,2 hPa 0,0 l/m 0 min 0,0 UV-I 0 W/m 7,7 km/h (2 Bft)
07.02.2013 06:22 0,9 C -0,4 C 97 % 0 lf 1008,3 hPa 0,0 l/m 0 min 0,0 UV-I 0 W/m 7,7 km/h (2 Bft)
07.02.2013 06:24 0,9 C -0,4 C 97 % 0 lf 1008,3 hPa 0,0 l/m 0 min 0,0 UV-I 0 W/m 12,9 km/h (3 Bft)
07.02.2013 06:26 0,9 C -0,4 C 97 % 0 lf 1008,3 hPa 0,0 l/m 0 min 0,0 UV-I 0 W/m 5,1 km/h (1 Bft)
07.02.2013 06:28 0,9 C -0,4 C 97 % 0 lf 1008,3 hPa 0,0 l/m 0 min 0,0 UV-I 0 W/m 5,1 km/h (1 Bft)
07.02.2013 06:30 0,9 C -0,4 C 97 % 0 lf 1008,3 hPa 0,0 l/m 0 min 0,0 UV-I 0 W/m 10,3 km/h (2 Bft)
07.02.2013 06:32 1,0 C 0,1 C 97 % 0 lf 1008,3 hPa 0,0 l/m 0 min 0,0 UV-I 0 W/m 10,3 km/h (2 Bft)
07.02.2013 06:34 1,0 C 0,1 C 97 % 0 lf 1008,3 hPa 0,0 l/m 0 min 0,0 UV-I 0 W/m 7,7 km/h (2 Bft)
07.02.2013 06:36 1,0 C 0,1 C 97 % 0 lf 1008,3 hPa 0,0 l/m 0 min 0,0 UV-I 0 W/m 10,3 km/h (2 Bft)
07.02.2013 06:38 1,0 C -0,4 C 97 % 0 lf 1008,2 hPa 0,0 l/m 0 min 0,0 UV-I 0 W/m 7,7 km/h (2 Bft)
07.02.2013 06:40 1,0 C -0,4 C 97 % 0 lf 1008,3 hPa 0,0 l/m 0 min 0,0 UV-I 0 W/m 2,6 km/h (1 Bft)
07.02.2013 06:42 1,1 C -0,4 C 97 % 0 lf 1008,4 hPa 0,0 l/m 0 min 0,0 UV-I 0 W/m 10,3 km/h (2 Bft)
07.02.2013 06:44 1,0 C -0,4 C 97 % 0 lf 1008,3 hPa 0,0 l/m 0 min 0,0 UV-I 0 W/m 7,7 km/h (2 Bft)
07.02.2013 06:46 1,0 C -0,4 C 97 % 0 lf 1008,3 hPa 0,0 l/m 0 min 0,0 UV-I 0 W/m 10,3 km/h (2 Bft)
07.02.2013 06:48 1,0 C -0,4 C 97 % 0 lf 1008,3 hPa 0,0 l/m 0 min 0,0 UV-I 0 W/m 2,6 km/h (1 Bft)
07.02.2013 06:50 1,0 C -0,4 C 97 % 0 lf 1008,4 hPa 0,0 l/m 0 min 0,0 UV-I 0 W/m 0,0 km/h (0 Bft)
07.02.2013 06:52 1,0 C -0,4 C 97 % 0 lf 1008,4 hPa 0,0 l/m 0 min 0,0 UV-I 0 W/m 7,7 km/h (2 Bft)
07.02.2013 06:54 1,0 C -0,4 C 97 % 0 lf 1008,5 hPa 0,0 l/m 0 min 0,0 UV-I 0 W/m 5,1 km/h (1 Bft)
07.02.2013 06:56 1,0 C -0,4 C 97 % 0 lf 1008,4 hPa 0,0 l/m 0 min 0,0 UV-I 0 W/m 7,7 km/h (2 Bft)
07.02.2013 06:58 1,0 C -0,4 C 97 % 0 lf 1008,4 hPa 0,0 l/m 0 min 0,0 UV-I 0 W/m 7,7 km/h (2 Bft)
07.02.2013 07:00 1,0 C 0,1 C 97 % 0 lf 1008,4 hPa 0,0 l/m 0 min 0,0 UV-I 0 W/m 2,6 km/h (1 Bft)
07.02.2013 07:02 1,0 C 0,1 C 97 % 0 lf 1008,4 hPa 0,0 l/m 0 min 0,0 UV-I 0 W/m 15,4 km/h (3 Bft)
07.02.2013 07:06 1,1 C 0,1 C 97 % 0 lf 1008,5 hPa 0,0 l/m 0 min 0,0 UV-I 0 W/m 18,0 km/h (3 Bft)
07.02.2013 07:08 1,1 C 0,1 C 97 % 0 lf 1008,4 hPa 0,0 l/m 0 min 0,0 UV-I 0 W/m 12,9 km/h (3 Bft)
07.02.2013 07:10 1,1 C 0,1 C 97 % 0 lf 1008,5 hPa 0,0 l/m 0 min 0,0 UV-I 0 W/m 18,0 km/h (3 Bft)
07.02.2013 07:12 1,1 C 0,1 C 97 % 0 lf 1008,6 hPa 0,2 l/m 0 min 0,0 UV-I 0 W/m 10,3 km/h (2 Bft)
07.02.2013 07:14 1,1 C 0,1 C 97 % 15 lf 1008,5 hPa 0,0 l/m 0 min 0,0 UV-I 0 W/m 7,7 km/h (2 Bft)
07.02.2013 07:16 1,2 C 0,1 C 97 % 15 lf 1008,6 hPa 0,0 l/m 0 min 0,0 UV-I 0 W/m 5,1 km/h (1 Bft)
07.02.2013 07:18 1,2 C 0,1 C 97 % 15 lf 1008,6 hPa 0,0 l/m 0 min 0,0 UV-I 0 W/m 5,1 km/h (1 Bft)
07.02.2013 07:20 1,2 C 0,1 C 97 % 15 lf 1008,6 hPa 0,0 l/m 0 min 0,0 UV-I 0 W/m 5,1 km/h (1 Bft)
07.02.2013 07:22 1,2 C 0,1 C 97 % 15 lf 1008,6 hPa 0,0 l/m 0 min 0,0 UV-I 0 W/m 7,7 km/h (2 Bft)
07.02.2013 07:24 1,2 C 0,1 C 97 % 15 lf 1008,7 hPa 0,0 l/m 0 min 0,0 UV-I 0 W/m 5,1 km/h (1 Bft)
07.02.2013 07:26 1,2 C 0,1 C 97 % 15 lf 1008,6 hPa 0,0 l/m 0 min 0,0 UV-I 0 W/m 10,3 km/h (2 Bft)
07.02.2013 07:28 1,2 C -0,4 C 97 % 15 lf 1008,6 hPa 0,0 l/m 0 min 0,0 UV-I 0 W/m 18,0 km/h (3 Bft)
07.02.2013 07:30 1,2 C -0,4 C 97 % 15 lf 1008,7 hPa 0,0 l/m 0 min 0,0 UV-I 0 W/m 5,1 km/h (1 Bft)
07.02.2013 07:32 1,2 C -0,4 C 97 % 15 lf 1008,7 hPa 0,0 l/m 0 min 0,0 UV-I 0 W/m 5,1 km/h (1 Bft)
07.02.2013 07:34 1,2 C -0,4 C 97 % 15 lf 1008,8 hPa 0,0 l/m 0 min 0,0 UV-I 0 W/m 10,3 km/h (2 Bft)
07.02.2013 07:36 1,2 C -0,4 C 97 % 15 lf 1008,7 hPa 0,0 l/m 0 min 0,0 UV-I 0 W/m 5,1 km/h (1 Bft)
07.02.2013 07:38 1,2 C 0,1 C 97 % 15 lf 1008,8 hPa 0,0 l/m 0 min 0,0 UV-I 0 W/m 5,1 km/h (1 Bft)
07.02.2013 07:40 1,2 C 0,1 C 97 % 15 lf 1008,8 hPa 0,0 l/m 0 min 0,0 UV-I 0 W/m 10,3 km/h (2 Bft)
07.02.2013 07:42 1,2 C 0,1 C 97 % 15 lf 1008,9 hPa 0,0 l/m 0 min 0,0 UV-I 0 W/m 12,9 km/h (3 Bft)
07.02.2013 07:44 1,2 C 0,1 C 97 % 15 lf 1008,9 hPa 0,0 l/m 0 min 0,0 UV-I 0 W/m 10,3 km/h (2 Bft)
07.02.2013 07:46 1,2 C 0,1 C 97 % 15 lf 1008,9 hPa 0,0 l/m 0 min 0,0 UV-I 0 W/m 7,7 km/h (2 Bft)
07.02.2013 07:48 1,2 C 0,1 C 97 % 15 lf 1009,0 hPa 0,0 l/m 0 min 0,0 UV-I 0 W/m 5,1 km/h (1 Bft)
07.02.2013 07:50 1,2 C 0,1 C 97 % 15 lf 1009,0 hPa 0,0 l/m 0 min 0,0 UV-I 0 W/m 10,3 km/h (2 Bft)
07.02.2013 07:52 1,2 C 0,1 C 97 % 15 lf 1009,0 hPa 0,0 l/m 0 min 0,0 UV-I 0 W/m 12,9 km/h (3 Bft)
07.02.2013 07:54 1,2 C 0,1 C 97 % 15 lf 1009,0 hPa 0,0 l/m 0 min 0,0 UV-I 0 W/m 12,9 km/h (3 Bft)
07.02.2013 07:56 1,2 C 0,1 C 97 % 15 lf 1009,1 hPa 0,0 l/m 0 min 0,0 UV-I 0 W/m 10,3 km/h (2 Bft)
07.02.2013 07:58 1,2 C 0,1 C 97 % 15 lf 1009,1 hPa 0,0 l/m 0 min 0,0 UV-I 0 W/m 5,1 km/h (1 Bft)
07.02.2013 08:00 1,2 C 0,1 C 97 % 15 lf 1009,1 hPa 0,0 l/m 0 min 0,0 UV-I 0 W/m 0,0 km/h (0 Bft)
07.02.2013 08:02 1,2 C 0,1 C 98 % 15 lf 1009,1 hPa 0,0 l/m 0 min 0,0 UV-I 0 W/m 2,6 km/h (1 Bft)
07.02.2013 08:06 1,2 C 0,1 C 98 % 15 lf 1009,2 hPa 0,0 l/m 0 min 0,0 UV-I 0 W/m 10,3 km/h (2 Bft)
07.02.2013 08:08 1,2 C 0,1 C 98 % 15 lf 1009,2 hPa 0,0 l/m 0 min 0,0 UV-I 0 W/m 2,6 km/h (1 Bft)
07.02.2013 08:10 1,2 C 0,1 C 98 % 15 lf 1009,2 hPa 0,0 l/m 0 min 0,0 UV-I 0 W/m 7,7 km/h (2 Bft)
07.02.2013 08:12 1,2 C 0,1 C 98 % 15 lf 1009,3 hPa 0,0 l/m 0 min 0,0 UV-I 5 W/m 2,6 km/h (1 Bft)
07.02.2013 08:14 1,2 C 0,1 C 98 % 15 lf 1009,2 hPa 0,0 l/m 0 min 0,0 UV-I 5 W/m 0,0 km/h (0 Bft)
07.02.2013 08:16 1,2 C 0,1 C 98 % 15 lf 1009,2 hPa 0,0 l/m 0 min 0,0 UV-I 5 W/m 5,1 km/h (1 Bft)
07.02.2013 08:18 1,2 C 0,1 C 98 % 15 lf 1009,3 hPa 0,0 l/m 0 min 0,0 UV-I 5 W/m 7,7 km/h (2 Bft)
07.02.2013 08:20 1,2 C 0,1 C 98 % 15 lf 1009,3 hPa 0,0 l/m 0 min 0,0 UV-I 7 W/m 0,0 km/h (0 Bft)
07.02.2013 08:22 1,2 C 0,1 C 98 % 15 lf 1009,3 hPa 0,0 l/m 0 min 0,0 UV-I 11 W/m 7,7 km/h (2 Bft)
07.02.2013 08:24 1,2 C 0,1 C 98 % 15 lf 1009,3 hPa 0,0 l/m 0 min 0,0 UV-I 11 W/m 10,3 km/h (2 Bft)
07.02.2013 08:26 1,2 C 0,1 C 98 % 15 lf 1009,4 hPa 0,0 l/m 0 min 0,0 UV-I 12 W/m 10,3 km/h (2 Bft)
07.02.2013 08:28 1,2 C 0,1 C 98 % 15 lf 1009,4 hPa 0,0 l/m 0 min 0,0 UV-I 14 W/m 2,6 km/h (1 Bft)
07.02.2013 08:30 1,2 C 0,1 C 98 % 15 lf 1009,4 hPa 0,0 l/m 0 min 0,0 UV-I 12 W/m 5,1 km/h (1 Bft)
07.02.2013 08:32 1,2 C 0,1 C 98 % 15 lf 1009,4 hPa 0,0 l/m 0 min 0,0 UV-I 14 W/m 0,0 km/h (0 Bft)
07.02.2013 08:34 1,2 C 0,1 C 98 % 15 lf 1009,4 hPa 0,0 l/m 0 min 0,0 UV-I 16 W/m 2,6 km/h (1 Bft)
07.02.2013 08:36 1,3 C 0,1 C 98 % 15 lf 1009,4 hPa 0,0 l/m 0 min 0,0 UV-I 12 W/m 0,0 km/h (0 Bft)
07.02.2013 08:38 1,2 C 0,1 C 98 % 15 lf 1009,4 hPa 0,0 l/m 0 min 0,0 UV-I 12 W/m 7,7 km/h (2 Bft)
07.02.2013 08:40 1,3 C 0,1 C 98 % 14 lf 1009,4 hPa 0,0 l/m 0 min 0,0 UV-I 14 W/m 2,6 km/h (1 Bft)
07.02.2013 08:42 1,3 C 0,1 C 98 % 14 lf 1009,5 hPa 0,0 l/m 0 min 0,0 UV-I 12 W/m 7,7 km/h (2 Bft)
07.02.2013 08:44 1,3 C 0,1 C 98 % 14 lf 1009,5 hPa 0,0 l/m 0 min 0,0 UV-I 18 W/m 7,7 km/h (2 Bft)
07.02.2013 08:46 1,3 C 0,1 C 98 % 13 lf 1009,5 hPa 0,0 l/m 0 min 0,0 UV-I 19 W/m 7,7 km/h (2 Bft)
07.02.2013 08:48 1,3 C 0,1 C 98 % 12 lf 1009,5 hPa 0,0 l/m 0 min 0,0 UV-I 19 W/m 10,3 km/h (2 Bft)
07.02.2013 08:50 1,3 C 0,1 C 98 % 9 lf 1009,5 hPa 0,0 l/m 0 min 0,0 UV-I 23 W/m 10,3 km/h (2 Bft)
07.02.2013 08:52 1,3 C 0,1 C 98 % 4 lf 1009,5 hPa 0,0 l/m 0 min 0,0 UV-I 30 W/m 5,1 km/h (1 Bft)
07.02.2013 08:54 1,3 C 0,1 C 98 % 2 lf 1009,7 hPa 0,0 l/m 0 min 0,0 UV-I 28 W/m 5,1 km/h (1 Bft)
07.02.2013 08:56 1,3 C 0,1 C 98 % 0 lf 1009,7 hPa 0,0 l/m 0 min 0,0 UV-I 32 W/m 20,6 km/h (4 Bft)
07.02.2013 08:58 1,3 C 0,1 C 98 % 0 lf 1009,7 hPa 0,0 l/m 0 min 0,0 UV-I 26 W/m 2,6 km/h (1 Bft)
07.02.2013 09:00 1,3 C 0,1 C 98 % 0 lf 1009,7 hPa 0,0 l/m 0 min 0,0 UV-I 26 W/m 0,0 km/h (0 Bft)
07.02.2013 09:02 1,3 C 0,1 C 98 % 0 lf 1009,7 hPa 0,0 l/m 0 min 0,0 UV-I 23 W/m 10,3 km/h (2 Bft)
07.02.2013 09:06 1,3 C 0,1 C 98 % 0 lf 1009,8 hPa 0,0 l/m 0 min 0,0 UV-I 14 W/m 12,9 km/h (3 Bft)
07.02.2013 09:08 1,3 C 0,1 C 98 % 0 lf 1009,8 hPa 0,0 l/m 0 min 0,0 UV-I 18 W/m 5,1 km/h (1 Bft)
07.02.2013 09:10 1,3 C 0,1 C 98 % 0 lf 1009,9 hPa 0,0 l/m 0 min 0,0 UV-I 26 W/m 0,0 km/h (0 Bft)
07.02.2013 09:12 1,3 C 0,1 C 98 % 0 lf 1009,8 hPa 0,0 l/m 0 min 0,0 UV-I 33 W/m 7,7 km/h (2 Bft)
07.02.2013 09:14 1,3 C 0,1 C 98 % 0 lf 1009,9 hPa 0,0 l/m 0 min 0,0 UV-I 35 W/m 5,1 km/h (1 Bft)
07.02.2013 09:16 1,3 C 0,1 C 98 % 0 lf 1009,9 hPa 0,0 l/m 0 min 0,0 UV-I 32 W/m 0,0 km/h (0 Bft)
07.02.2013 09:18 1,3 C 0,1 C 98 % 0 lf 1009,9 hPa 0,0 l/m 0 min 0,0 UV-I 25 W/m 15,4 km/h (3 Bft)
07.02.2013 09:20 1,3 C 0,7 C 98 % 0 lf 1009,9 hPa 0,0 l/m 0 min 0,0 UV-I 28 W/m 7,7 km/h (2 Bft)
07.02.2013 09:22 1,3 C 0,7 C 98 % 0 lf 1009,9 hPa 0,0 l/m 0 min 0,0 UV-I 40 W/m 0,0 km/h (0 Bft)
07.02.2013 09:24 1,4 C 0,7 C 98 % 0 lf 1010,0 hPa 0,0 l/m 0 min 0,0 UV-I 40 W/m 5,1 km/h (1 Bft)
07.02.2013 09:26 1,4 C 0,7 C 97 % 0 lf 1010,0 hPa 0,0 l/m 0 min 0,0 UV-I 33 W/m 0,0 km/h (0 Bft)
07.02.2013 09:28 1,4 C 0,7 C 97 % 0 lf 1010,0 hPa 0,0 l/m 0 min 0,0 UV-I 35 W/m 5,1 km/h (1 Bft)
07.02.2013 09:30 1,4 C 0,7 C 97 % 0 lf 1010,0 hPa 0,0 l/m 0 min 0,0 UV-I 49 W/m 5,1 km/h (1 Bft)
07.02.2013 09:32 1,4 C 0,7 C 97 % 0 lf 1010,1 hPa 0,0 l/m 0 min 0,0 UV-I 54 W/m 10,3 km/h (2 Bft)
07.02.2013 09:34 1,4 C 0,7 C 97 % 0 lf 1010,0 hPa 0,0 l/m 0 min 0,0 UV-I 58 W/m 2,6 km/h (1 Bft)
07.02.2013 09:36 1,4 C 0,7 C 97 % 0 lf 1010,1 hPa 0,0 l/m 0 min 0,0 UV-I 49 W/m 5,1 km/h (1 Bft)
07.02.2013 09:38 1,5 C 0,7 C 97 % 0 lf 1010,1 hPa 0,0 l/m 0 min 0,0 UV-I 63 W/m 0,0 km/h (0 Bft)
07.02.2013 09:40 1,5 C 0,7 C 98 % 0 lf 1010,1 hPa 0,0 l/m 0 min 0,0 UV-I 37 W/m 0,0 km/h (0 Bft)
07.02.2013 09:42 1,5 C 0,7 C 98 % 0 lf 1010,2 hPa 0,0 l/m 0 min 0,0 UV-I 39 W/m 7,7 km/h (2 Bft)
07.02.2013 09:44 1,6 C 0,7 C 98 % 0 lf 1010,1 hPa 0,0 l/m 0 min 0,0 UV-I 47 W/m 5,1 km/h (1 Bft)
07.02.2013 09:46 1,6 C 0,7 C 98 % 0 lf 1010,2 hPa 0,0 l/m 0 min 0,0 UV-I 56 W/m 7,7 km/h (2 Bft)
07.02.2013 09:48 1,6 C 0,7 C 98 % 0 lf 1010,2 hPa 0,0 l/m 0 min 0,0 UV-I 74 W/m 2,6 km/h (1 Bft)
07.02.2013 09:50 1,6 C 0,7 C 98 % 0 lf 1010,2 hPa 0,0 l/m 0 min 0,0 UV-I 60 W/m 0,0 km/h (0 Bft)
07.02.2013 09:52 1,6 C 1,2 C 97 % 0 lf 1010,2 hPa 0,0 l/m 0 min 0,0 UV-I 62 W/m 7,7 km/h (2 Bft)
07.02.2013 09:54 1,6 C 1,2 C 97 % 0 lf 1010,2 hPa 0,0 l/m 0 min 0,0 UV-I 60 W/m 0,0 km/h (0 Bft)
07.02.2013 09:56 1,6 C 1,2 C 97 % 0 lf 1010,2 hPa 0,0 l/m 0 min 0,0 UV-I 54 W/m 5,1 km/h (1 Bft)
07.02.2013 09:58 1,7 C 1,2 C 97 % 0 lf 1010,2 hPa 0,0 l/m 0 min 0,0 UV-I 58 W/m 10,3 km/h (2 Bft)
07.02.2013 10:00 1,7 C 1,2 C 97 % 0 lf 1010,2 hPa 0,0 l/m 0 min 0,0 UV-I 49 W/m 2,6 km/h (1 Bft)
07.02.2013 10:02 1,7 C 1,2 C 97 % 0 lf 1010,2 hPa 0,0 l/m 0 min 0,0 UV-I 40 W/m 10,3 km/h (2 Bft)
07.02.2013 10:04 1,7 C 0,7 C 97 % 0 lf 1010,3 hPa 0,0 l/m 0 min 0,0 UV-I 35 W/m 7,7 km/h (2 Bft)
07.02.2013 10:06 1,7 C 0,7 C 97 % 0 lf 1010,3 hPa 0,0 l/m 0 min 0,0 UV-I 33 W/m 7,7 km/h (2 Bft)
07.02.2013 10:08 1,7 C 0,7 C 97 % 0 lf 1010,3 hPa 0,0 l/m 0 min 0,0 UV-I 39 W/m 0,0 km/h (0 Bft)
07.02.2013 10:10 1,7 C 0,7 C 97 % 0 lf 1010,3 hPa 0,0 l/m 0 min 0,0 UV-I 63 W/m 7,7 km/h (2 Bft)
07.02.2013 10:12 1,7 C 1,2 C 97 % 0 lf 1010,3 hPa 0,0 l/m 0 min 0,0 UV-I 62 W/m 2,6 km/h (1 Bft)
07.02.2013 10:14 1,7 C 1,2 C 97 % 0 lf 1010,2 hPa 0,0 l/m 0 min 0,0 UV-I 63 W/m 7,7 km/h (2 Bft)
07.02.2013 10:16 1,7 C 1,2 C 97 % 0 lf 1010,2 hPa 0,0 l/m 0 min 0,0 UV-I 54 W/m 7,7 km/h (2 Bft)
07.02.2013 10:18 1,8 C 1,2 C 97 % 0 lf 1010,3 hPa 0,0 l/m 0 min 0,0 UV-I 69 W/m 5,1 km/h (1 Bft)
07.02.2013 10:20 1,8 C 1,2 C 97 % 0 lf 1010,3 hPa 0,0 l/m 0 min 0,0 UV-I 76 W/m 0,0 km/h (0 Bft)
07.02.2013 10:22 1,8 C 1,2 C 97 % 0 lf 1010,3 hPa 0,0 l/m 0 min 0,0 UV-I 98 W/m 5,1 km/h (1 Bft)
07.02.2013 10:24 1,8 C 1,2 C 97 % 0 lf 1010,3 hPa 0,0 l/m 2 min 0,0 UV-I 162 W/m 7,7 km/h (2 Bft)
07.02.2013 10:26 1,8 C 1,2 C 97 % 0 lf 1010,3 hPa 0,0 l/m 0 min 0,0 UV-I 123 W/m 5,1 km/h (1 Bft)
07.02.2013 10:28 1,9 C 1,2 C 97 % 0 lf 1010,4 hPa 0,0 l/m 0 min 0,0 UV-I 114 W/m 10,3 km/h (2 Bft)
07.02.2013 10:30 1,9 C 1,2 C 97 % 0 lf 1010,4 hPa 0,0 l/m 0 min 0,0 UV-I 107 W/m 5,1 km/h (1 Bft)
07.02.2013 10:32 1,9 C 1,2 C 97 % 0 lf 1010,4 hPa 0,0 l/m 0 min 0,0 UV-I 97 W/m 2,6 km/h (1 Bft)
07.02.2013 10:34 2,0 C 1,2 C 97 % 0 lf 1010,3 hPa 0,0 l/m 0 min 0,0 UV-I 90 W/m 5,1 km/h (1 Bft)
07.02.2013 10:36 2,0 C 1,2 C 97 % 0 lf 1010,3 hPa 0,0 l/m 0 min 0,0 UV-I 86 W/m 10,3 km/h (2 Bft)
07.02.2013 10:38 2,0 C 1,2 C 97 % 0 lf 1010,3 hPa 0,0 l/m 0 min 0,0 UV-I 72 W/m 0,0 km/h (0 Bft)
07.02.2013 10:40 2,1 C 1,2 C 96 % 0 lf 1010,5 hPa 0,0 l/m 0 min 0,0 UV-I 97 W/m 5,1 km/h (1 Bft)
07.02.2013 10:42 2,1 C 1,2 C 96 % 0 lf 1010,4 hPa 0,0 l/m 2 min 0,0 UV-I 229 W/m 2,6 km/h (1 Bft)
07.02.2013 10:44 2,1 C 1,2 C 96 % 0 lf 1010,5 hPa 0,0 l/m 2 min 0,0 UV-I 229 W/m 7,7 km/h (2 Bft)
07.02.2013 10:46 2,1 C 1,2 C 96 % 0 lf 1010,4 hPa 0,0 l/m 2 min 0,0 UV-I 213 W/m 5,1 km/h (1 Bft)
07.02.2013 10:48 2,2 C 1,8 C 96 % 0 lf 1010,5 hPa 0,0 l/m 2 min 0,0 UV-I 343 W/m 10,3 km/h (2 Bft)
07.02.2013 10:50 2,2 C 1,8 C 96 % 0 lf 1010,5 hPa 0,0 l/m 2 min 0,0 UV-I 353 W/m 5,1 km/h (1 Bft)
07.02.2013 10:52 2,3 C 2,3 C 96 % 0 lf 1010,4 hPa 0,0 l/m 2 min 0,0 UV-I 213 W/m 5,1 km/h (1 Bft)
07.02.2013 10:54 2,4 C 2,3 C 96 % 0 lf 1010,5 hPa 0,0 l/m 2 min 0,0 UV-I 213 W/m 7,7 km/h (2 Bft)
07.02.2013 10:56 2,4 C 2,3 C 96 % 0 lf 1010,4 hPa 0,0 l/m 0 min 0,0 UV-I 95 W/m 10,3 km/h (2 Bft)
07.02.2013 10:58 2,5 C 1,8 C 96 % 0 lf 1010,5 hPa 0,0 l/m 0 min 0,0 UV-I 79 W/m 10,3 km/h (2 Bft)
07.02.2013 11:00 2,5 C 1,8 C 96 % 0 lf 1010,5 hPa 0,0 l/m 0 min 0,0 UV-I 83 W/m 5,1 km/h (1 Bft)
07.02.2013 11:02 2,6 C 1,8 C 95 % 0 lf 1010,5 hPa 0,0 l/m 0 min 0,0 UV-I 91 W/m 10,3 km/h (2 Bft)
07.02.2013 11:04 2,6 C 1,8 C 95 % 0 lf 1010,5 hPa 0,0 l/m 0 min 0,0 UV-I 104 W/m 2,6 km/h (1 Bft)
07.02.2013 11:06 2,6 C 1,8 C 95 % 0 lf 1010,5 hPa 0,0 l/m 0 min 0,0 UV-I 130 W/m 2,6 km/h (1 Bft)
07.02.2013 11:08 2,6 C 2,3 C 95 % 0 lf 1010,5 hPa 0,0 l/m 2 min 0,0 UV-I 388 W/m 0,0 km/h (0 Bft)
07.02.2013 11:10 2,7 C 2,3 C 95 % 0 lf 1010,6 hPa 0,0 l/m 2 min 0,0 UV-I 394 W/m 12,9 km/h (3 Bft)
07.02.2013 11:12 2,7 C 2,3 C 95 % 0 lf 1010,5 hPa 0,0 l/m 2 min 0,0 UV-I 229 W/m 12,9 km/h (3 Bft)
07.02.2013 11:14 2,8 C 2,3 C 95 % 0 lf 1010,6 hPa 0,0 l/m 2 min 0,0 UV-I 336 W/m 10,3 km/h (2 Bft)
07.02.2013 11:16 2,9 C 2,3 C 95 % 0 lf 1010,6 hPa 0,0 l/m 0 min 0,0 UV-I 176 W/m 7,7 km/h (2 Bft)
07.02.2013 11:18 2,9 C 2,3 C 94 % 0 lf 1010,6 hPa 0,0 l/m 0 min 0,0 UV-I 165 W/m 10,3 km/h (2 Bft)
07.02.2013 11:20 3,0 C 2,3 C 94 % 0 lf 1010,6 hPa 0,0 l/m 0 min 0,0 UV-I 190 W/m 7,7 km/h (2 Bft)
07.02.2013 11:22 3,0 C 2,3 C 94 % 0 lf 1010,7 hPa 0,0 l/m 0 min 0,0 UV-I 151 W/m 12,9 km/h (3 Bft)
07.02.2013 11:24 3,1 C 2,3 C 93 % 0 lf 1010,8 hPa 0,0 l/m 0 min 0,0 UV-I 100 W/m 15,4 km/h (3 Bft)
07.02.2013 11:26 3,1 C 1,8 C 93 % 0 lf 1010,8 hPa 0,0 l/m 0 min 0,0 UV-I 93 W/m 7,7 km/h (2 Bft)
07.02.2013 11:28 3,1 C 2,3 C 93 % 0 lf 1010,8 hPa 0,0 l/m 0 min 0,0 UV-I 183 W/m 7,7 km/h (2 Bft)
07.02.2013 11:30 3,1 C 2,3 C 93 % 0 lf 1010,8 hPa 0,0 l/m 2 min 0,0 UV-I 436 W/m 10,3 km/h (2 Bft)
07.02.2013 11:32 3,1 C 2,3 C 93 % 0 lf 1010,7 hPa 0,0 l/m 2 min 0,0 UV-I 366 W/m 15,4 km/h (3 Bft)
07.02.2013 11:34 3,1 C 2,3 C 93 % 0 lf 1010,8 hPa 0,0 l/m 2 min 0,0 UV-I 207 W/m 18,0 km/h (3 Bft)
07.02.2013 11:36 3,1 C 2,9 C 92 % 0 lf 1010,8 hPa 0,0 l/m 2 min 0,0 UV-I 411 W/m 5,1 km/h (1 Bft)
07.02.2013 11:38 3,2 C 2,9 C 93 % 0 lf 1010,8 hPa 0,0 l/m 2 min 0,0 UV-I 366 W/m 7,7 km/h (2 Bft)
07.02.2013 11:40 3,2 C 2,9 C 93 % 0 lf 1010,7 hPa 0,0 l/m 2 min 0,0 UV-I 374 W/m 0,0 km/h (0 Bft)
07.02.2013 11:42 3,3 C 2,3 C 92 % 0 lf 1010,8 hPa 0,0 l/m 2 min 0,0 UV-I 237 W/m 10,3 km/h (2 Bft)
07.02.2013 11:44 3,3 C 2,3 C 92 % 0 lf 1010,7 hPa 0,0 l/m 2 min 0,0 UV-I 241 W/m 10,3 km/h (2 Bft)
07.02.2013 11:46 3,3 C 2,3 C 92 % 0 lf 1010,8 hPa 0,0 l/m 2 min 0,0 UV-I 239 W/m 12,9 km/h (3 Bft)
07.02.2013 11:48 3,3 C 2,3 C 92 % 0 lf 1010,7 hPa 0,0 l/m 0 min 0,0 UV-I 137 W/m 7,7 km/h (2 Bft)
07.02.2013 11:50 3,3 C 2,3 C 91 % 0 lf 1010,7 hPa 0,0 l/m 0 min 0,0 UV-I 137 W/m 18,0 km/h (3 Bft)
07.02.2013 11:52 3,3 C 1,8 C 91 % 0 lf 1010,6 hPa 0,0 l/m 0 min 0,0 UV-I 102 W/m 12,9 km/h (3 Bft)
07.02.2013 11:54 3,3 C 1,8 C 91 % 0 lf 1010,7 hPa 0,0 l/m 0 min 0,0 UV-I 95 W/m 10,3 km/h (2 Bft)
07.02.2013 11:56 3,3 C 1,8 C 91 % 0 lf 1010,8 hPa 0,0 l/m 0 min 0,0 UV-I 127 W/m 7,7 km/h (2 Bft)
07.02.2013 11:58 3,3 C 1,8 C 91 % 0 lf 1010,8 hPa 0,0 l/m 2 min 0,0 UV-I 378 W/m 5,1 km/h (1 Bft)
07.02.2013 12:00 3,3 C 1,8 C 91 % 0 lf 1010,9 hPa 0,0 l/m 2 min 0,0 UV-I 360 W/m 7,7 km/h (2 Bft)
07.02.2013 12:02 3,3 C 2,3 C 91 % 0 lf 1010,8 hPa 0,0 l/m 2 min 0,0 UV-I 336 W/m 7,7 km/h (2 Bft)
07.02.2013 12:06 3,3 C 2,3 C 91 % 0 lf 1010,8 hPa 0,0 l/m 2 min 0,0 UV-I 279 W/m 12,9 km/h (3 Bft)
07.02.2013 12:08 3,4 C 2,3 C 91 % 0 lf 1010,8 hPa 0,0 l/m 2 min 0,0 UV-I 308 W/m 10,3 km/h (2 Bft)
07.02.2013 12:10 3,4 C 2,3 C 96 % 0 lf 1010,7 hPa 0,0 l/m 2 min 0,0 UV-I 302 W/m 2,6 km/h (1 Bft)
07.02.2013 12:12 3,4 C 2,3 C 91 % 0 lf 1010,7 hPa 0,0 l/m 2 min 0,0 UV-I 346 W/m 5,1 km/h (1 Bft)
07.02.2013 12:14 3,5 C 2,3 C 91 % 0 lf 1010,7 hPa 0,0 l/m 2 min 0,0 UV-I 362 W/m 7,7 km/h (2 Bft)
07.02.2013 12:16 3,6 C 2,3 C 91 % 0 lf 1010,7 hPa 0,0 l/m 2 min 0,0 UV-I 364 W/m 0,0 km/h (0 Bft)
07.02.2013 12:18 3,7 C 2,3 C 91 % 0 lf 1010,6 hPa 0,0 l/m 2 min 0,0 UV-I 371 W/m 7,7 km/h (2 Bft)
07.02.2013 12:20 3,7 C 2,9 C 91 % 0 lf 1010,6 hPa 0,0 l/m 2 min 0,0 UV-I 362 W/m 2,6 km/h (1 Bft)
07.02.2013 12:22 3,8 C 2,9 C 91 % 0 lf 1010,7 hPa 0,0 l/m 2 min 0,0 UV-I 371 W/m 2,6 km/h (1 Bft)
07.02.2013 12:24 3,8 C 2,9 C 91 % 0 lf 1010,7 hPa 0,0 l/m 2 min 0,0 UV-I 374 W/m 7,7 km/h (2 Bft)
07.02.2013 12:26 3,9 C 2,9 C 90 % 0 lf 1010,7 hPa 0,0 l/m 2 min 0,0 UV-I 316 W/m 10,3 km/h (2 Bft)
07.02.2013 12:28 3,9 C 2,3 C 90 % 0 lf 1010,6 hPa 0,0 l/m 2 min 0,0 UV-I 274 W/m 10,3 km/h (2 Bft)
07.02.2013 12:30 3,9 C 2,3 C 89 % 0 lf 1010,7 hPa 0,0 l/m 0 min 0,0 UV-I 209 W/m 10,3 km/h (2 Bft)
07.02.2013 12:32 3,9 C 2,3 C 89 % 0 lf 1010,7 hPa 0,0 l/m 2 min 0,0 UV-I 274 W/m 12,9 km/h (3 Bft)
07.02.2013 12:34 3,9 C 2,3 C 89 % 0 lf 1010,7 hPa 0,0 l/m 0 min 0,0 UV-I 120 W/m 7,7 km/h (2 Bft)
07.02.2013 12:36 3,9 C 2,3 C 88 % 0 lf 1010,8 hPa 0,0 l/m 0 min 0,0 UV-I 118 W/m 2,6 km/h (1 Bft)
07.02.2013 12:38 3,9 C 2,3 C 88 % 0 lf 1010,7 hPa 0,0 l/m 0 min 0,0 UV-I 107 W/m 15,4 km/h (3 Bft)
07.02.2013 12:40 3,9 C 2,3 C 88 % 0 lf 1010,7 hPa 0,0 l/m 0 min 0,0 UV-I 81 W/m 2,6 km/h (1 Bft)
07.02.2013 12:42 3,8 C 2,3 C 88 % 0 lf 1010,7 hPa 0,0 l/m 0 min 0,0 UV-I 88 W/m 2,6 km/h (1 Bft)
07.02.2013 12:44 3,8 C 2,3 C 88 % 0 lf 1010,7 hPa 0,0 l/m 0 min 0,0 UV-I 137 W/m 5,1 km/h (1 Bft)
07.02.2013 12:46 3,8 C 2,3 C 88 % 0 lf 1010,7 hPa 0,0 l/m 0 min 0,0 UV-I 134 W/m 12,9 km/h (3 Bft)
07.02.2013 12:48 3,8 C 2,3 C 88 % 0 lf 1010,6 hPa 0,0 l/m 0 min 0,0 UV-I 142 W/m 7,7 km/h (2 Bft)
07.02.2013 12:50 3,7 C 2,3 C 88 % 0 lf 1010,6 hPa 0,0 l/m 0 min 0,0 UV-I 123 W/m 0,0 km/h (0 Bft)
07.02.2013 12:52 3,8 C 2,9 C 88 % 0 lf 1010,6 hPa 0,0 l/m 0 min 0,0 UV-I 142 W/m 7,7 km/h (2 Bft)
07.02.2013 12:54 3,8 C 2,3 C 88 % 0 lf 1010,7 hPa 0,0 l/m 0 min 0,0 UV-I 118 W/m 12,9 km/h (3 Bft)
07.02.2013 12:56 3,7 C 2,3 C 88 % 0 lf 1010,6 hPa 0,0 l/m 0 min 0,0 UV-I 130 W/m 7,7 km/h (2 Bft)
07.02.2013 12:58 3,7 C 2,3 C 88 % 0 lf 1010,7 hPa 0,0 l/m 0 min 0,0 UV-I 137 W/m 5,1 km/h (1 Bft)
07.02.2013 13:00 3,7 C 2,3 C 88 % 0 lf 1010,7 hPa 0,0 l/m 0 min 0,0 UV-I 158 W/m 7,7 km/h (2 Bft)
07.02.2013 13:02 3,7 C 2,9 C 88 % 0 lf 1010,6 hPa 0,0 l/m 0 min 0,0 UV-I 213 W/m 7,7 km/h (2 Bft)
07.02.2013 13:04 3,7 C 2,9 C 88 % 0 lf 1010,7 hPa 0,0 l/m 2 min 0,0 UV-I 232 W/m 7,7 km/h (2 Bft)
07.02.2013 13:06 3,8 C 3,4 C 88 % 0 lf 1010,6 hPa 0,0 l/m 2 min 0,0 UV-I 301 W/m 5,1 km/h (1 Bft)
07.02.2013 13:08 3,8 C 3,4 C 89 % 0 lf 1010,6 hPa 0,0 l/m 2 min 0,0 UV-I 480 W/m 7,7 km/h (2 Bft)
07.02.2013 13:10 3,9 C 3,4 C 88 % 0 lf 1010,6 hPa 0,0 l/m 2 min 0,0 UV-I 480 W/m 10,3 km/h (2 Bft)
07.02.2013 13:12 3,9 C 2,9 C 88 % 0 lf 1010,6 hPa 0,0 l/m 0 min 0,0 UV-I 49 W/m 10,3 km/h (2 Bft)
07.02.2013 13:14 3,9 C 2,9 C 88 % 0 lf 1010,7 hPa 0,0 l/m 0 min 0,0 UV-I 47 W/m 12,9 km/h (3 Bft)
07.02.2013 13:16 3,9 C 2,3 C 87 % 0 lf 1010,7 hPa 0,0 l/m 0 min 0,0 UV-I 47 W/m 5,1 km/h (1 Bft)
07.02.2013 13:18 3,9 C 2,3 C 87 % 0 lf 1010,7 hPa 0,0 l/m 0 min 0,0 UV-I 51 W/m 20,6 km/h (4 Bft)
07.02.2013 13:20 3,8 C 2,3 C 86 % 0 lf 1010,7 hPa 0,0 l/m 0 min 0,0 UV-I 63 W/m 10,3 km/h (2 Bft)
07.02.2013 13:22 3,8 C 2,3 C 86 % 0 lf 1010,7 hPa 0,0 l/m 0 min 0,0 UV-I 79 W/m 10,3 km/h (2 Bft)
07.02.2013 13:24 3,8 C 2,3 C 86 % 0 lf 1010,6 hPa 0,0 l/m 0 min 0,0 UV-I 88 W/m 5,1 km/h (1 Bft)
07.02.2013 13:26 3,8 C 2,3 C 86 % 0 lf 1010,6 hPa 0,0 l/m 0 min 0,0 UV-I 113 W/m 5,1 km/h (1 Bft)
07.02.2013 13:28 3,8 C 2,3 C 86 % 0 lf 1010,6 hPa 0,0 l/m 0 min 0,0 UV-I 163 W/m 0,0 km/h (0 Bft)
07.02.2013 13:30 3,7 C 2,3 C 86 % 0 lf 1010,6 hPa 0,0 l/m 0 min 0,0 UV-I 130 W/m 10,3 km/h (2 Bft)
07.02.2013 13:32 3,7 C 2,3 C 86 % 0 lf 1010,7 hPa 0,0 l/m 0 min 0,0 UV-I 134 W/m 5,1 km/h (1 Bft)
07.02.2013 13:34 3,7 C 2,3 C 87 % 0 lf 1010,7 hPa 0,0 l/m 0 min 0,0 UV-I 130 W/m 0,0 km/h (0 Bft)
07.02.2013 13:36 3,8 C 2,9 C 87 % 0 lf 1010,6 hPa 0,0 l/m 2 min 0,0 UV-I 322 W/m 7,7 km/h (2 Bft)
07.02.2013 13:38 3,8 C 2,9 C 87 % 0 lf 1010,6 hPa 0,0 l/m 0 min 0,0 UV-I 209 W/m 10,3 km/h (2 Bft)
07.02.2013 13:40 3,8 C 2,9 C 87 % 0 lf 1010,6 hPa 0,0 l/m 2 min 0,0 UV-I 236 W/m 7,7 km/h (2 Bft)
07.02.2013 13:42 3,8 C 2,9 C 87 % 0 lf 1010,6 hPa 0,0 l/m 2 min 0,0 UV-I 406 W/m 12,9 km/h (3 Bft)
07.02.2013 13:44 3,8 C 2,9 C 87 % 0 lf 1010,6 hPa 0,0 l/m 0 min 0,0 UV-I 190 W/m 7,7 km/h (2 Bft)
07.02.2013 13:46 3,9 C 2,9 C 87 % 0 lf 1010,6 hPa 0,0 l/m 0 min 0,0 UV-I 195 W/m 7,7 km/h (2 Bft)
07.02.2013 13:48 3,9 C 2,9 C 87 % 0 lf 1010,6 hPa 0,0 l/m 0 min 0,0 UV-I 188 W/m 5,1 km/h (1 Bft)
07.02.2013 13:50 4,0 C 2,9 C 87 % 0 lf 1010,6 hPa 0,0 l/m 0 min 0,0 UV-I 188 W/m 12,9 km/h (3 Bft)
07.02.2013 13:52 4,0 C 2,9 C 86 % 0 lf 1010,6 hPa 0,0 l/m 0 min 0,0 UV-I 165 W/m 7,7 km/h (2 Bft)
07.02.2013 13:54 4,1 C 2,9 C 86 % 0 lf 1010,5 hPa 0,0 l/m 2 min 0,0 UV-I 309 W/m 10,3 km/h (2 Bft)
07.02.2013 13:56 4,1 C 3,4 C 86 % 0 lf 1010,5 hPa 0,0 l/m 2 min 0,0 UV-I 330 W/m 2,6 km/h (1 Bft)
07.02.2013 13:58 4,2 C 3,4 C 86 % 0 lf 1010,5 hPa 0,0 l/m 2 min 0,0 UV-I 360 W/m 10,3 km/h (2 Bft)
07.02.2013 14:00 4,2 C 3,4 C 86 % 0 lf 1010,5 hPa 0,0 l/m 2 min 0,0 UV-I 330 W/m 7,7 km/h (2 Bft)
07.02.2013 14:02 4,2 C 2,9 C 86 % 0 lf 1010,4 hPa 0,0 l/m 0 min 0,0 UV-I 162 W/m 2,6 km/h (1 Bft)
07.02.2013 14:04 4,3 C 3,4 C 86 % 0 lf 1010,4 hPa 0,0 l/m 0 min 0,0 UV-I 163 W/m 5,1 km/h (1 Bft)
07.02.2013 14:06 4,3 C 2,9 C 85 % 0 lf 1010,5 hPa 0,0 l/m 0 min 0,0 UV-I 135 W/m 10,3 km/h (2 Bft)
07.02.2013 14:08 4,3 C 2,9 C 85 % 0 lf 1010,4 hPa 0,0 l/m 0 min 0,0 UV-I 151 W/m 2,6 km/h (1 Bft)
07.02.2013 14:10 4,3 C 2,9 C 85 % 0 lf 1010,5 hPa 0,0 l/m 0 min 0,0 UV-I 132 W/m 5,1 km/h (1 Bft)
07.02.2013 14:12 4,3 C 2,9 C 85 % 0 lf 1010,5 hPa 0,0 l/m 0 min 0,0 UV-I 193 W/m 10,3 km/h (2 Bft)
07.02.2013 14:14 4,3 C 2,9 C 85 % 0 lf 1010,4 hPa 0,0 l/m 0 min 0,0 UV-I 105 W/m 10,3 km/h (2 Bft)
07.02.2013 14:16 4,3 C 2,9 C 84 % 0 lf 1010,5 hPa 0,0 l/m 0 min 0,0 UV-I 118 W/m 12,9 km/h (3 Bft)
07.02.2013 14:18 4,3 C 2,9 C 84 % 0 lf 1010,5 hPa 0,0 l/m 0 min 0,0 UV-I 158 W/m 15,4 km/h (3 Bft)
07.02.2013 14:20 4,3 C 2,9 C 85 % 0 lf 1010,5 hPa 0,0 l/m 0 min 0,0 UV-I 139 W/m 5,1 km/h (1 Bft)
07.02.2013 14:22 4,3 C 2,9 C 85 % 0 lf 1010,4 hPa 0,0 l/m 0 min 0,0 UV-I 137 W/m 7,7 km/h (2 Bft)
07.02.2013 14:24 4,3 C 2,9 C 85 % 0 lf 1010,4 hPa 0,0 l/m 0 min 0,0 UV-I 144 W/m 2,6 km/h (1 Bft)
07.02.2013 14:26 4,3 C 2,9 C 85 % 0 lf 1010,4 hPa 0,0 l/m 0 min 0,0 UV-I 148 W/m 0,0 km/h (0 Bft)
07.02.2013 14:28 4,3 C 2,9 C 85 % 0 lf 1010,4 hPa 0,0 l/m 0 min 0,0 UV-I 134 W/m 0,0 km/h (0 Bft)
07.02.2013 14:30 4,3 C 2,9 C 85 % 0 lf 1010,4 hPa 0,0 l/m 0 min 0,0 UV-I 116 W/m 0,0 km/h (0 Bft)
07.02.2013 14:32 4,3 C 2,9 C 85 % 0 lf 1010,4 hPa 0,0 l/m 0 min 0,0 UV-I 105 W/m 0,0 km/h (0 Bft)
07.02.2013 14:34 4,3 C 2,9 C 85 % 0 lf 1010,4 hPa 0,0 l/m 0 min 0,0 UV-I 91 W/m 5,1 km/h (1 Bft)
07.02.2013 14:36 4,3 C 2,9 C 85 % 0 lf 1010,4 hPa 0,0 l/m 0 min 0,0 UV-I 69 W/m 0,0 km/h (0 Bft)
07.02.2013 14:38 4,2 C 2,9 C 85 % 0 lf 1010,4 hPa 0,0 l/m 0 min 0,0 UV-I 62 W/m 7,7 km/h (2 Bft)
07.02.2013 14:40 4,2 C 2,9 C 85 % 0 lf 1010,4 hPa 0,0 l/m 0 min 0,0 UV-I 51 W/m 7,7 km/h (2 Bft)
07.02.2013 14:42 4,2 C 2,9 C 85 % 0 lf 1010,4 hPa 0,0 l/m 0 min 0,0 UV-I 35 W/m 7,7 km/h (2 Bft)
07.02.2013 14:44 4,2 C 2,3 C 85 % 0 lf 1010,4 hPa 0,0 l/m 0 min 0,0 UV-I 28 W/m 0,0 km/h (0 Bft)
07.02.2013 14:46 4,1 C 2,3 C 85 % 0 lf 1010,5 hPa 0,0 l/m 0 min 0,0 UV-I 25 W/m 0,0 km/h (0 Bft)
07.02.2013 14:48 4,1 C 2,3 C 85 % 3 lf 1010,5 hPa 0,0 l/m 0 min 0,0 UV-I 18 W/m 0,0 km/h (0 Bft)
07.02.2013 14:50 4,1 C 2,3 C 85 % 7 lf 1010,4 hPa 0,0 l/m 0 min 0,0 UV-I 19 W/m 10,3 km/h (2 Bft)
07.02.2013 14:52 4,0 C 2,3 C 85 % 13 lf 1010,5 hPa 0,0 l/m 0 min 0,0 UV-I 21 W/m 10,3 km/h (2 Bft)
07.02.2013 14:54 3,9 C 1,8 C 85 % 14 lf 1010,5 hPa 0,0 l/m 0 min 0,0 UV-I 21 W/m 7,7 km/h (2 Bft)
07.02.2013 14:56 3,8 C 1,8 C 86 % 15 lf 1010,4 hPa 0,0 l/m 0 min 0,0 UV-I 26 W/m 5,1 km/h (1 Bft)
07.02.2013 14:58 3,8 C 1,8 C 86 % 15 lf 1010,5 hPa 0,0 l/m 0 min 0,0 UV-I 30 W/m 5,1 km/h (1 Bft)
07.02.2013 15:00 3,8 C 1,8 C 86 % 15 lf 1010,5 hPa 0,0 l/m 0 min 0,0 UV-I 32 W/m 5,1 km/h (1 Bft)
07.02.2013 15:02 3,7 C 1,2 C 87 % 15 lf 1010,5 hPa 0,0 l/m 0 min 0,0 UV-I 37 W/m 10,3 km/h (2 Bft)
07.02.2013 15:06 3,6 C 1,2 C 88 % 15 lf 1010,6 hPa 0,0 l/m 0 min 0,0 UV-I 77 W/m 12,9 km/h (3 Bft)
07.02.2013 15:08 3,6 C 0,7 C 88 % 15 lf 1010,6 hPa 0,0 l/m 0 min 0,0 UV-I 54 W/m 10,3 km/h (2 Bft)
07.02.2013 15:10 3,4 C 0,7 C 87 % 15 lf 1010,6 hPa 0,0 l/m 0 min 0,0 UV-I 26 W/m 12,9 km/h (3 Bft)
07.02.2013 15:12 3,4 C 0,7 C 88 % 15 lf 1010,7 hPa 0,0 l/m 0 min 0,0 UV-I 21 W/m 10,3 km/h (2 Bft)
07.02.2013 15:14 3,2 C 0,1 C 88 % 15 lf 1010,7 hPa 0,0 l/m 0 min 0,0 UV-I 19 W/m 10,3 km/h (2 Bft)
07.02.2013 15:16 3,1 C 0,1 C 88 % 15 lf 1010,7 hPa 0,0 l/m 0 min 0,0 UV-I 21 W/m 10,3 km/h (2 Bft)
07.02.2013 15:18 3,0 C 0,1 C 88 % 15 lf 1010,7 hPa 0,0 l/m 0 min 0,0 UV-I 23 W/m 12,9 km/h (3 Bft)
07.02.2013 15:20 2,9 C 0,1 C 88 % 15 lf 1010,7 hPa 0,0 l/m 0 min 0,0 UV-I 35 W/m 2,6 km/h (1 Bft)
07.02.2013 15:22 2,8 C 0,1 C 89 % 15 lf 1010,7 hPa 0,0 l/m 0 min 0,0 UV-I 74 W/m 0,0 km/h (0 Bft)
07.02.2013 15:24 2,8 C 0,1 C 89 % 15 lf 1010,7 hPa 0,0 l/m 0 min 0,0 UV-I 67 W/m 0,0 km/h (0 Bft)
07.02.2013 15:26 2,7 C 0,1 C 89 % 15 lf 1010,7 hPa 0,0 l/m 0 min 0,0 UV-I 63 W/m 0,0 km/h (0 Bft)
07.02.2013 15:28 2,7 C 0,1 C 89 % 15 lf 1010,6 hPa 0,0 l/m 0 min 0,0 UV-I 56 W/m 0,0 km/h (0 Bft)
07.02.2013 15:30 2,6 C 0,1 C 89 % 15 lf 1010,7 hPa 0,0 l/m 0 min 0,0 UV-I 56 W/m 0,0 km/h (0 Bft)
07.02.2013 15:32 2,6 C 0,1 C 90 % 15 lf 1010,6 hPa 0,0 l/m 0 min 0,0 UV-I 90 W/m 0,0 km/h (0 Bft)
07.02.2013 15:34 2,6 C 0,7 C 90 % 15 lf 1010,6 hPa 0,0 l/m 2 min 0,0 UV-I 229 W/m 0,0 km/h (0 Bft)
07.02.2013 15:36 2,6 C 0,7 C 91 % 15 lf 1010,6 hPa 0,0 l/m 2 min 0,0 UV-I 239 W/m 0,0 km/h (0 Bft)
07.02.2013 15:38 2,6 C 0,7 C 91 % 15 lf 1010,6 hPa 0,0 l/m 2 min 0,0 UV-I 272 W/m 0,0 km/h (0 Bft)
07.02.2013 15:40 2,6 C 0,7 C 92 % 15 lf 1010,6 hPa 0,0 l/m 2 min 0,0 UV-I 246 W/m 0,0 km/h (0 Bft)
07.02.2013 15:42 2,6 C 1,2 C 92 % 15 lf 1010,6 hPa 0,0 l/m 2 min 0,0 UV-I 234 W/m 2,6 km/h (1 Bft)
07.02.2013 15:44 2,7 C 1,2 C 92 % 14 lf 1010,6 hPa 0,0 l/m 2 min 0,0 UV-I 223 W/m 2,6 km/h (1 Bft)
07.02.2013 15:46 2,7 C 0,7 C 92 % 5 lf 1010,6 hPa 0,0 l/m 2 min 0,0 UV-I 204 W/m 5,1 km/h (1 Bft)
07.02.2013 15:48 2,7 C 0,7 C 92 % 0 lf 1010,6 hPa 0,0 l/m 0 min 0,0 UV-I 109 W/m 2,6 km/h (1 Bft)
07.02.2013 15:50 2,7 C 0,7 C 92 % 0 lf 1010,5 hPa 0,0 l/m 0 min 0,0 UV-I 54 W/m 2,6 km/h (1 Bft)
07.02.2013 15:52 2,7 C 0,7 C 93 % 0 lf 1010,6 hPa 0,0 l/m 0 min 0,0 UV-I 39 W/m 2,6 km/h (1 Bft)
07.02.2013 15:54 2,7 C 0,7 C 93 % 0 lf 1010,5 hPa 0,0 l/m 0 min 0,0 UV-I 39 W/m 0,0 km/h (0 Bft)
07.02.2013 15:56 2,7 C 0,7 C 93 % 0 lf 1010,5 hPa 0,0 l/m 0 min 0,0 UV-I 39 W/m 0,0 km/h (0 Bft)
07.02.2013 15:58 2,7 C 0,7 C 93 % 0 lf 1010,6 hPa 0,0 l/m 0 min 0,0 UV-I 35 W/m 0,0 km/h (0 Bft)
07.02.2013 16:00 2,7 C 0,7 C 93 % 0 lf 1010,6 hPa 0,0 l/m 0 min 0,0 UV-I 33 W/m 5,1 km/h (1 Bft)
07.02.2013 16:02 2,7 C 0,7 C 93 % 0 lf 1010,6 hPa 0,0 l/m 0 min 0,0 UV-I 32 W/m 0,0 km/h (0 Bft)
07.02.2013 16:04 2,7 C 0,7 C 93 % 0 lf 1010,6 hPa 0,0 l/m 0 min 0,0 UV-I 30 W/m 0,0 km/h (0 Bft)
07.02.2013 16:06 2,7 C 0,7 C 93 % 0 lf 1010,6 hPa 0,0 l/m 0 min 0,0 UV-I 30 W/m 0,0 km/h (0 Bft)
07.02.2013 16:08 2,7 C 0,7 C 93 % 0 lf 1010,6 hPa 0,0 l/m 0 min 0,0 UV-I 26 W/m 0,0 km/h (0 Bft)
07.02.2013 16:10 2,7 C 0,7 C 93 % 0 lf 1010,6 hPa 0,0 l/m 0 min 0,0 UV-I 25 W/m 0,0 km/h (0 Bft)
07.02.2013 16:12 2,7 C 0,1 C 93 % 0 lf 1010,6 hPa 0,0 l/m 0 min 0,0 UV-I 23 W/m 0,0 km/h (0 Bft)
07.02.2013 16:14 2,6 C 0,1 C 93 % 0 lf 1010,6 hPa 0,0 l/m 0 min 0,0 UV-I 21 W/m 0,0 km/h (0 Bft)
07.02.2013 16:16 2,6 C 0,1 C 93 % 0 lf 1010,6 hPa 0,0 l/m 0 min 0,0 UV-I 19 W/m 0,0 km/h (0 Bft)
07.02.2013 16:18 2,6 C 0,1 C 92 % 0 lf 1010,5 hPa 0,0 l/m 0 min 0,0 UV-I 18 W/m 0,0 km/h (0 Bft)
07.02.2013 16:20 2,5 C 0,1 C 93 % 0 lf 1010,5 hPa 0,0 l/m 0 min 0,0 UV-I 16 W/m 0,0 km/h (0 Bft)
07.02.2013 16:22 2,5 C 0,1 C 93 % 0 lf 1010,5 hPa 0,0 l/m 0 min 0,0 UV-I 16 W/m 0,0 km/h (0 Bft)
07.02.2013 16:24 2,4 C 0,1 C 92 % 0 lf 1010,5 hPa 0,0 l/m 0 min 0,0 UV-I 14 W/m 0,0 km/h (0 Bft)
07.02.2013 16:26 2,4 C 0,1 C 93 % 0 lf 1010,5 hPa 0,0 l/m 0 min 0,0 UV-I 12 W/m 0,0 km/h (0 Bft)
07.02.2013 16:28 2,4 C 0,1 C 93 % 0 lf 1010,5 hPa 0,0 l/m 0 min 0,0 UV-I 12 W/m 0,0 km/h (0 Bft)
07.02.2013 16:30 2,3 C -0,4 C 92 % 0 lf 1010,5 hPa 0,0 l/m 0 min 0,0 UV-I 12 W/m 0,0 km/h (0 Bft)
07.02.2013 16:32 2,3 C -0,4 C 92 % 0 lf 1010,6 hPa 0,0 l/m 0 min 0,0 UV-I 11 W/m 0,0 km/h (0 Bft)
07.02.2013 16:34 2,3 C 0,1 C 92 % 0 lf 1010,5 hPa 0,0 l/m 0 min 0,0 UV-I 11 W/m 0,0 km/h (0 Bft)
07.02.2013 16:36 2,2 C 0,1 C 92 % 0 lf 1010,6 hPa 0,0 l/m 0 min 0,0 UV-I 11 W/m 0,0 km/h (0 Bft)
07.02.2013 16:38 2,2 C 0,1 C 92 % 0 lf 1010,6 hPa 0,0 l/m 0 min 0,0 UV-I 11 W/m 0,0 km/h (0 Bft)
07.02.2013 16:40 2,2 C 0,1 C 92 % 0 lf 1010,6 hPa 0,0 l/m 0 min 0,0 UV-I 9 W/m 0,0 km/h (0 Bft)
07.02.2013 16:42 2,2 C 0,1 C 93 % 0 lf 1010,6 hPa 0,0 l/m 0 min 0,0 UV-I 9 W/m 0,0 km/h (0 Bft)
07.02.2013 16:44 2,2 C 0,1 C 93 % 0 lf 1010,7 hPa 0,0 l/m 0 min 0,0 UV-I 11 W/m 0,0 km/h (0 Bft)
07.02.2013 16:46 2,1 C 0,1 C 93 % 0 lf 1010,6 hPa 0,0 l/m 0 min 0,0 UV-I 11 W/m 0,0 km/h (0 Bft)
07.02.2013 16:48 2,1 C 0,1 C 93 % 0 lf 1010,7 hPa 0,0 l/m 0 min 0,0 UV-I 11 W/m 0,0 km/h (0 Bft)
07.02.2013 16:50 2,1 C 0,1 C 93 % 0 lf 1010,6 hPa 0,0 l/m 0 min 0,0 UV-I 11 W/m 0,0 km/h (0 Bft)
07.02.2013 16:52 2,0 C 0,1 C 93 % 0 lf 1010,7 hPa 0,0 l/m 0 min 0,0 UV-I 12 W/m 0,0 km/h (0 Bft)
07.02.2013 16:54 2,0 C 0,1 C 93 % 0 lf 1010,7 hPa 0,0 l/m 0 min 0,0 UV-I 12 W/m 0,0 km/h (0 Bft)
07.02.2013 16:56 2,0 C 0,1 C 93 % 0 lf 1010,7 hPa 0,0 l/m 0 min 0,0 UV-I 18 W/m 2,6 km/h (1 Bft)
07.02.2013 16:58 1,9 C 0,1 C 93 % 0 lf 1010,7 hPa 0,0 l/m 0 min 0,0 UV-I 21 W/m 0,0 km/h (0 Bft)
07.02.2013 17:00 1,9 C 0,1 C 93 % 0 lf 1010,7 hPa 0,0 l/m 0 min 0,0 UV-I 25 W/m 7,7 km/h (2 Bft)
07.02.2013 17:02 1,9 C 0,1 C 94 % 0 lf 1010,7 hPa 0,0 l/m 0 min 0,0 UV-I 25 W/m 2,6 km/h (1 Bft)
07.02.2013 17:04 1,9 C 0,1 C 94 % 0 lf 1010,7 hPa 0,0 l/m 0 min 0,0 UV-I 25 W/m 7,7 km/h (2 Bft)
07.02.2013 17:06 1,9 C 0,1 C 94 % 0 lf 1010,7 hPa 0,0 l/m 0 min 0,0 UV-I 21 W/m 5,1 km/h (1 Bft)
07.02.2013 17:08 1,9 C 0,1 C 94 % 0 lf 1010,7 hPa 0,0 l/m 0 min 0,0 UV-I 18 W/m 0,0 km/h (0 Bft)
07.02.2013 17:10 1,9 C 0,1 C 94 % 0 lf 1010,7 hPa 0,0 l/m 0 min 0,0 UV-I 19 W/m 0,0 km/h (0 Bft)
07.02.2013 17:12 1,9 C 0,1 C 94 % 0 lf 1010,7 hPa 0,0 l/m 0 min 0,0 UV-I 18 W/m 5,1 km/h (1 Bft)
07.02.2013 17:14 1,9 C 0,1 C 94 % 0 lf 1010,7 hPa 0,0 l/m 0 min 0,0 UV-I 12 W/m 5,1 km/h (1 Bft)
07.02.2013 17:16 1,9 C 0,1 C 94 % 0 lf 1010,7 hPa 0,0 l/m 0 min 0,0 UV-I 9 W/m 5,1 km/h (1 Bft)
07.02.2013 17:18 1,9 C 0,1 C 94 % 0 lf 1010,7 hPa 0,0 l/m 0 min 0,0 UV-I 7 W/m 5,1 km/h (1 Bft)
07.02.2013 17:20 1,9 C 0,1 C 94 % 0 lf 1010,7 hPa 0,0 l/m 0 min 0,0 UV-I 7 W/m 2,6 km/h (1 Bft)
07.02.2013 17:22 1,9 C 0,1 C 94 % 0 lf 1010,7 hPa 0,0 l/m 0 min 0,0 UV-I 5 W/m 2,6 km/h (1 Bft)
07.02.2013 17:24 1,8 C 0,1 C 94 % 0 lf 1010,8 hPa 0,0 l/m 0 min 0,0 UV-I 5 W/m 5,1 km/h (1 Bft)
07.02.2013 17:26 1,8 C 0,1 C 94 % 0 lf 1010,8 hPa 0,0 l/m 0 min 0,0 UV-I 5 W/m 0,0 km/h (0 Bft)
07.02.2013 17:28 1,8 C 0,1 C 94 % 0 lf 1010,8 hPa 0,0 l/m 0 min 0,0 UV-I 5 W/m 0,0 km/h (0 Bft)
07.02.2013 17:30 1,8 C -0,4 C 94 % 0 lf 1010,8 hPa 0,0 l/m 0 min 0,0 UV-I 0 W/m 0,0 km/h (0 Bft)
07.02.2013 17:32 1,7 C -0,4 C 94 % 0 lf 1010,8 hPa 0,0 l/m 0 min 0,0 UV-I 0 W/m 0,0 km/h (0 Bft)
07.02.2013 17:34 1,7 C -0,4 C 94 % 0 lf 1010,8 hPa 0,0 l/m 0 min 0,0 UV-I 0 W/m 0,0 km/h (0 Bft)
07.02.2013 17:36 1,7 C -0,4 C 94 % 0 lf 1010,9 hPa 0,0 l/m 0 min 0,0 UV-I 0 W/m 2,6 km/h (1 Bft)
07.02.2013 17:38 1,6 C -0,4 C 94 % 1 lf 1010,9 hPa 0,0 l/m 0 min 0,0 UV-I 0 W/m 0,0 km/h (0 Bft)
07.02.2013 17:40 1,6 C -0,4 C 94 % 1 lf 1011,0 hPa 0,0 l/m 0 min 0,0 UV-I 0 W/m 5,1 km/h (1 Bft)
07.02.2013 17:42 1,5 C -0,4 C 94 % 1 lf 1010,9 hPa 0,0 l/m 0 min 0,0 UV-I 0 W/m 7,7 km/h (2 Bft)
07.02.2013 17:44 1,4 C -0,4 C 94 % 1 lf 1010,9 hPa 0,0 l/m 0 min 0,0 UV-I 0 W/m 0,0 km/h (0 Bft)
07.02.2013 17:46 1,4 C -0,4 C 95 % 1 lf 1011,0 hPa 0,0 l/m 0 min 0,0 UV-I 0 W/m 0,0 km/h (0 Bft)
07.02.2013 17:48 1,3 C -0,4 C 95 % 1 lf 1010,8 hPa 0,0 l/m 0 min 0,0 UV-I 0 W/m 5,1 km/h (1 Bft)
07.02.2013 17:50 1,3 C -0,4 C 95 % 1 lf 1011,0 hPa 0,0 l/m 0 min 0,0 UV-I 0 W/m 2,6 km/h (1 Bft)
07.02.2013 17:52 1,3 C -0,4 C 95 % 0 lf 1011,0 hPa 0,0 l/m 0 min 0,0 UV-I 0 W/m 5,1 km/h (1 Bft)
07.02.2013 17:54 1,3 C -0,4 C 95 % 0 lf 1010,9 hPa 0,0 l/m 0 min 0,0 UV-I 0 W/m 7,7 km/h (2 Bft)
07.02.2013 17:56 1,3 C -0,4 C 95 % 0 lf 1010,9 hPa 0,0 l/m 0 min 0,0 UV-I 0 W/m 0,0 km/h (0 Bft)
07.02.2013 17:58 1,3 C -0,4 C 95 % 0 lf 1010,9 hPa 0,0 l/m 0 min 0,0 UV-I 0 W/m 5,1 km/h (1 Bft)
07.02.2013 18:00 1,3 C -0,4 C 95 % 1 lf 1010,9 hPa 0,0 l/m 0 min 0,0 UV-I 0 W/m 2,6 km/h (1 Bft)
07.02.2013 18:02 1,3 C -0,4 C 95 % 1 lf 1011,0 hPa 0,0 l/m 0 min 0,0 UV-I 0 W/m 7,7 km/h (2 Bft)
07.02.2013 18:06 1,2 C -0,4 C 95 % 1 lf 1011,0 hPa 0,0 l/m 0 min 0,0 UV-I 0 W/m 7,7 km/h (2 Bft)
07.02.2013 18:08 1,2 C -0,4 C 95 % 1 lf 1011,0 hPa 0,0 l/m 0 min 0,0 UV-I 0 W/m 0,0 km/h (0 Bft)
07.02.2013 18:10 1,2 C -0,4 C 95 % 1 lf 1011,0 hPa 0,0 l/m 0 min 0,0 UV-I 0 W/m 0,0 km/h (0 Bft)
07.02.2013 18:12 1,2 C -0,4 C 95 % 1 lf 1011,0 hPa 0,0 l/m 0 min 0,0 UV-I 0 W/m 5,1 km/h (1 Bft)
07.02.2013 18:14 1,1 C -0,4 C 95 % 1 lf 1011,0 hPa 0,0 l/m 0 min 0,0 UV-I 0 W/m 0,0 km/h (0 Bft)
07.02.2013 18:16 1,1 C -0,4 C 96 % 2 lf 1011,0 hPa 0,0 l/m 0 min 0,0 UV-I 0 W/m 0,0 km/h (0 Bft)
07.02.2013 18:18 1,1 C -0,4 C 96 % 2 lf 1011,1 hPa 0,0 l/m 0 min 0,0 UV-I 0 W/m 5,1 km/h (1 Bft)
07.02.2013 18:20 1,1 C -0,4 C 96 % 2 lf 1011,1 hPa 0,0 l/m 0 min 0,0 UV-I 0 W/m 2,6 km/h (1 Bft)
07.02.2013 18:22 1,1 C -0,4 C 96 % 2 lf 1011,1 hPa 0,0 l/m 0 min 0,0 UV-I 0 W/m 0,0 km/h (0 Bft)
07.02.2013 18:24 1,1 C -0,4 C 96 % 2 lf 1011,1 hPa 0,0 l/m 0 min 0,0 UV-I 0 W/m 0,0 km/h (0 Bft)
07.02.2013 18:26 1,1 C -0,4 C 96 % 2 lf 1011,1 hPa 0,0 l/m 0 min 0,0 UV-I 0 W/m 0,0 km/h (0 Bft)
07.02.2013 18:28 1,1 C -0,4 C 96 % 2 lf 1011,1 hPa 0,0 l/m 0 min 0,0 UV-I 0 W/m 5,1 km/h (1 Bft)
07.02.2013 18:30 1,1 C -0,4 C 96 % 1 lf 1011,1 hPa 0,0 l/m 0 min 0,0 UV-I 0 W/m 0,0 km/h (0 Bft)
07.02.2013 18:32 1,1 C -0,4 C 96 % 1 lf 1011,1 hPa 0,0 l/m 0 min 0,0 UV-I 0 W/m 2,6 km/h (1 Bft)
07.02.2013 18:34 1,1 C -0,4 C 96 % 1 lf 1011,1 hPa 0,0 l/m 0 min 0,0 UV-I 0 W/m 2,6 km/h (1 Bft)
07.02.2013 18:36 1,1 C -0,4 C 96 % 1 lf 1011,1 hPa 0,0 l/m 0 min 0,0 UV-I 0 W/m 5,1 km/h (1 Bft)
07.02.2013 18:38 1,1 C -0,4 C 96 % 1 lf 1011,0 hPa 0,0 l/m 0 min 0,0 UV-I 0 W/m 0,0 km/h (0 Bft)
07.02.2013 18:40 1,1 C -0,4 C 96 % 1 lf 1011,1 hPa 0,0 l/m 0 min 0,0 UV-I 0 W/m 2,6 km/h (1 Bft)
07.02.2013 18:42 1,1 C -0,4 C 96 % 1 lf 1011,1 hPa 0,0 l/m 0 min 0,0 UV-I 0 W/m 5,1 km/h (1 Bft)
07.02.2013 18:44 1,1 C -0,4 C 96 % 1 lf 1011,2 hPa 0,0 l/m 0 min 0,0 UV-I 0 W/m 2,6 km/h (1 Bft)
07.02.2013 18:46 1,1 C -0,4 C 96 % 2 lf 1011,2 hPa 0,0 l/m 0 min 0,0 UV-I 0 W/m 5,1 km/h (1 Bft)
07.02.2013 18:48 1,1 C -0,4 C 96 % 2 lf 1011,1 hPa 0,0 l/m 0 min 0,0 UV-I 0 W/m 5,1 km/h (1 Bft)
07.02.2013 18:50 1,0 C -0,4 C 96 % 2 lf 1011,2 hPa 0,0 l/m 0 min 0,0 UV-I 0 W/m 2,6 km/h (1 Bft)
07.02.2013 18:52 1,0 C -0,4 C 96 % 2 lf 1011,2 hPa 0,0 l/m 0 min 0,0 UV-I 0 W/m 2,6 km/h (1 Bft)
07.02.2013 18:54 1,0 C -0,4 C 96 % 3 lf 1011,1 hPa 0,0 l/m 0 min 0,0 UV-I 0 W/m 5,1 km/h (1 Bft)
07.02.2013 18:56 0,9 C -1,0 C 96 % 3 lf 1011,1 hPa 0,0 l/m 0 min 0,0 UV-I 0 W/m 2,6 km/h (1 Bft)
07.02.2013 18:58 0,9 C -0,4 C 96 % 3 lf 1011,2 hPa 0,0 l/m 0 min 0,0 UV-I 0 W/m 0,0 km/h (0 Bft)
07.02.2013 19:00 0,9 C -0,4 C 97 % 4 lf 1011,2 hPa 0,0 l/m 0 min 0,0 UV-I 0 W/m 0,0 km/h (0 Bft)
07.02.2013 19:02 0,9 C -0,4 C 96 % 4 lf 1011,2 hPa 0,0 l/m 0 min 0,0 UV-I 0 W/m 0,0 km/h (0 Bft)
07.02.2013 19:06 0,8 C -0,4 C 96 % 4 lf 1011,2 hPa 0,0 l/m 0 min 0,0 UV-I 0 W/m 0,0 km/h (0 Bft)
07.02.2013 19:08 0,8 C -0,4 C 96 % 4 lf 1011,2 hPa 0,0 l/m 0 min 0,0 UV-I 0 W/m 7,7 km/h (2 Bft)
07.02.2013 19:10 0,8 C -0,4 C 96 % 5 lf 1011,2 hPa 0,0 l/m 0 min 0,0 UV-I 0 W/m 2,6 km/h (1 Bft)
07.02.2013 19:12 0,8 C -0,4 C 97 % 6 lf 1011,3 hPa 0,0 l/m 0 min 0,0 UV-I 0 W/m 7,7 km/h (2 Bft)
07.02.2013 19:14 0,8 C -0,4 C 97 % 6 lf 1011,3 hPa 0,0 l/m 0 min 0,0 UV-I 0 W/m 0,0 km/h (0 Bft)
07.02.2013 19:16 0,8 C -0,4 C 97 % 6 lf 1011,3 hPa 0,0 l/m 0 min 0,0 UV-I 0 W/m 0,0 km/h (0 Bft)
07.02.2013 19:18 0,8 C -0,4 C 97 % 7 lf 1011,3 hPa 0,0 l/m 0 min 0,0 UV-I 0 W/m 5,1 km/h (1 Bft)
07.02.2013 19:20 0,8 C -0,4 C 97 % 7 lf 1011,3 hPa 0,0 l/m 0 min 0,0 UV-I 0 W/m 5,1 km/h (1 Bft)
07.02.2013 19:22 0,8 C -0,4 C 97 % 7 lf 1011,4 hPa 0,0 l/m 0 min 0,0 UV-I 0 W/m 7,7 km/h (2 Bft)
07.02.2013 19:24 0,8 C -0,4 C 97 % 8 lf 1011,5 hPa 0,0 l/m 0 min 0,0 UV-I 0 W/m 7,7 km/h (2 Bft)
07.02.2013 19:26 0,8 C -0,4 C 97 % 8 lf 1011,5 hPa 0,0 l/m 0 min 0,0 UV-I 0 W/m 10,3 km/h (2 Bft)
07.02.2013 19:28 0,8 C -0,4 C 97 % 8 lf 1011,4 hPa 0,0 l/m 0 min 0,0 UV-I 0 W/m 2,6 km/h (1 Bft)
07.02.2013 19:30 0,8 C -0,4 C 97 % 8 lf 1011,3 hPa 0,0 l/m 0 min 0,0 UV-I 0 W/m 2,6 km/h (1 Bft)
07.02.2013 19:32 0,8 C -0,4 C 97 % 8 lf 1011,4 hPa 0,0 l/m 0 min 0,0 UV-I 0 W/m 0,0 km/h (0 Bft)
07.02.2013 19:34 0,8 C -0,4 C 97 % 8 lf 1011,4 hPa 0,0 l/m 0 min 0,0 UV-I 0 W/m 5,1 km/h (1 Bft)
07.02.2013 19:36 0,8 C -0,4 C 97 % 8 lf 1011,4 hPa 0,0 l/m 0 min 0,0 UV-I 0 W/m 0,0 km/h (0 Bft)
07.02.2013 19:38 0,8 C -0,4 C 97 % 8 lf 1011,5 hPa 0,0 l/m 0 min 0,0 UV-I 0 W/m 0,0 km/h (0 Bft)
07.02.2013 19:40 0,8 C -0,4 C 97 % 7 lf 1011,4 hPa 0,0 l/m 0 min 0,0 UV-I 0 W/m 5,1 km/h (1 Bft)
07.02.2013 19:42 0,8 C -0,4 C 97 % 7 lf 1011,4 hPa 0,0 l/m 0 min 0,0 UV-I 0 W/m 7,7 km/h (2 Bft)
07.02.2013 19:44 0,8 C -0,4 C 97 % 6 lf 1011,4 hPa 0,0 l/m 0 min 0,0 UV-I 0 W/m 0,0 km/h (0 Bft)
07.02.2013 19:46 0,8 C -0,4 C 97 % 6 lf 1011,4 hPa 0,0 l/m 0 min 0,0 UV-I 0 W/m 5,1 km/h (1 Bft)
07.02.2013 19:48 0,8 C -0,4 C 97 % 5 lf 1011,4 hPa 0,0 l/m 0 min 0,0 UV-I 0 W/m 0,0 km/h (0 Bft)
07.02.2013 19:50 0,8 C -0,4 C 97 % 4 lf 1011,4 hPa 0,0 l/m 0 min 0,0 UV-I 0 W/m 7,7 km/h (2 Bft)
07.02.2013 19:52 0,8 C -0,4 C 97 % 4 lf 1011,5 hPa 0,0 l/m 0 min 0,0 UV-I 0 W/m 15,4 km/h (3 Bft)
07.02.2013 19:54 0,8 C -0,4 C 97 % 4 lf 1011,4 hPa 0,0 l/m 0 min 0,0 UV-I 0 W/m 7,7 km/h (2 Bft)
07.02.2013 19:56 0,8 C -0,4 C 98 % 4 lf 1011,4 hPa 0,0 l/m 0 min 0,0 UV-I 0 W/m 7,7 km/h (2 Bft)
07.02.2013 19:58 0,8 C -0,4 C 98 % 3 lf 1011,4 hPa 0,0 l/m 0 min 0,0 UV-I 0 W/m 10,3 km/h (2 Bft)
07.02.2013 20:00 0,9 C -0,4 C 98 % 3 lf 1011,4 hPa 0,0 l/m 0 min 0,0 UV-I 0 W/m 5,1 km/h (1 Bft)
07.02.2013 20:02 0,9 C -0,4 C 98 % 2 lf 1011,4 hPa 0,0 l/m 0 min 0,0 UV-I 0 W/m 7,7 km/h (2 Bft)
07.02.2013 20:04 0,9 C -0,4 C 98 % 1 lf 1011,4 hPa 0,0 l/m 0 min 0,0 UV-I 0 W/m 10,3 km/h (2 Bft)
07.02.2013 20:06 0,9 C -0,4 C 98 % 1 lf 1011,4 hPa 0,0 l/m 0 min 0,0 UV-I 0 W/m 0,0 km/h (0 Bft)
07.02.2013 20:08 0,9 C -0,4 C 98 % 1 lf 1011,4 hPa 0,0 l/m 0 min 0,0 UV-I 0 W/m 7,7 km/h (2 Bft)
07.02.2013 20:10 0,9 C -0,4 C 98 % 0 lf 1011,4 hPa 0,0 l/m 0 min 0,0 UV-I 0 W/m 7,7 km/h (2 Bft)
07.02.2013 20:12 0,9 C -0,4 C 98 % 0 lf 1011,4 hPa 0,0 l/m 0 min 0,0 UV-I 0 W/m 0,0 km/h (0 Bft)
07.02.2013 20:14 0,9 C -0,4 C 98 % 0 lf 1011,5 hPa 0,0 l/m 0 min 0,0 UV-I 0 W/m 0,0 km/h (0 Bft)
07.02.2013 20:16 0,9 C -0,4 C 98 % 0 lf 1011,5 hPa 0,0 l/m 0 min 0,0 UV-I 0 W/m 2,6 km/h (1 Bft)
07.02.2013 20:18 0,9 C 0,1 C 98 % 0 lf 1011,5 hPa 0,0 l/m 0 min 0,0 UV-I 0 W/m 2,6 km/h (1 Bft)
07.02.2013 20:20 0,9 C -0,4 C 98 % 0 lf 1011,5 hPa 0,0 l/m 0 min 0,0 UV-I 0 W/m 7,7 km/h (2 Bft)
07.02.2013 20:22 0,9 C 0,1 C 98 % 0 lf 1011,5 hPa 0,0 l/m 0 min 0,0 UV-I 0 W/m 10,3 km/h (2 Bft)
07.02.2013 20:24 0,9 C 0,1 C 98 % 0 lf 1011,4 hPa 0,0 l/m 0 min 0,0 UV-I 0 W/m 5,1 km/h (1 Bft)
07.02.2013 20:26 0,9 C 0,1 C 98 % 0 lf 1011,4 hPa 0,0 l/m 0 min 0,0 UV-I 0 W/m 7,7 km/h (2 Bft)
07.02.2013 20:28 0,9 C 0,1 C 98 % 0 lf 1011,5 hPa 0,0 l/m 0 min 0,0 UV-I 0 W/m 2,6 km/h (1 Bft)
07.02.2013 20:30 0,9 C 0,1 C 98 % 0 lf 1011,5 hPa 0,0 l/m 0 min 0,0 UV-I 0 W/m 0,0 km/h (0 Bft)
07.02.2013 20:32 0,9 C 0,1 C 98 % 0 lf 1011,5 hPa 0,0 l/m 0 min 0,0 UV-I 0 W/m 0,0 km/h (0 Bft)
07.02.2013 20:34 1,0 C 0,1 C 98 % 0 lf 1011,5 hPa 0,0 l/m 0 min 0,0 UV-I 0 W/m 0,0 km/h (0 Bft)
07.02.2013 20:36 1,0 C 0,1 C 98 % 0 lf 1011,5 hPa 0,0 l/m 0 min 0,0 UV-I 0 W/m 2,6 km/h (1 Bft)
07.02.2013 20:38 1,0 C 0,1 C 98 % 0 lf 1011,4 hPa 0,0 l/m 0 min 0,0 UV-I 0 W/m 2,6 km/h (1 Bft)
07.02.2013 20:40 1,0 C -0,4 C 98 % 0 lf 1011,5 hPa 0,0 l/m 0 min 0,0 UV-I 0 W/m 0,0 km/h (0 Bft)
07.02.2013 20:42 1,0 C -0,4 C 98 % 0 lf 1011,4 hPa 0,0 l/m 0 min 0,0 UV-I 0 W/m 2,6 km/h (1 Bft)
07.02.2013 20:44 1,0 C -0,4 C 98 % 0 lf 1011,5 hPa 0,0 l/m 0 min 0,0 UV-I 0 W/m 5,1 km/h (1 Bft)
07.02.2013 20:46 1,0 C -0,4 C 98 % 0 lf 1011,4 hPa 0,0 l/m 0 min 0,0 UV-I 0 W/m 0,0 km/h (0 Bft)
07.02.2013 20:48 1,0 C -0,4 C 98 % 0 lf 1011,5 hPa 0,0 l/m 0 min 0,0 UV-I 0 W/m 0,0 km/h (0 Bft)
07.02.2013 20:50 1,0 C -0,4 C 98 % 0 lf 1011,5 hPa 0,0 l/m 0 min 0,0 UV-I 0 W/m 7,7 km/h (2 Bft)
07.02.2013 20:52 1,0 C -0,4 C 98 % 0 lf 1011,5 hPa 0,0 l/m 0 min 0,0 UV-I 0 W/m 0,0 km/h (0 Bft)
07.02.2013 20:54 1,0 C -0,4 C 98 % 1 lf 1011,5 hPa 0,0 l/m 0 min 0,0 UV-I 0 W/m 0,0 km/h (0 Bft)
07.02.2013 20:56 0,9 C -0,4 C 98 % 1 lf 1011,5 hPa 0,0 l/m 0 min 0,0 UV-I 0 W/m 0,0 km/h (0 Bft)
07.02.2013 20:58 0,9 C -0,4 C 98 % 0 lf 1011,6 hPa 0,0 l/m 0 min 0,0 UV-I 0 W/m 7,7 km/h (2 Bft)
07.02.2013 21:00 0,9 C -0,4 C 98 % 0 lf 1011,5 hPa 0,0 l/m 0 min 0,0 UV-I 0 W/m 0,0 km/h (0 Bft)
07.02.2013 21:02 0,9 C -0,4 C 98 % 1 lf 1011,5 hPa 0,0 l/m 0 min 0,0 UV-I 0 W/m 2,6 km/h (1 Bft)
07.02.2013 21:06 0,9 C -0,4 C 98 % 1 lf 1011,5 hPa 0,0 l/m 0 min 0,0 UV-I 0 W/m 7,7 km/h (2 Bft)
07.02.2013 21:08 0,9 C -0,4 C 98 % 0 lf 1011,5 hPa 0,0 l/m 0 min 0,0 UV-I 0 W/m 5,1 km/h (1 Bft)
07.02.2013 21:10 0,9 C -0,4 C 98 % 0 lf 1011,6 hPa 0,0 l/m 0 min 0,0 UV-I 0 W/m 7,7 km/h (2 Bft)
07.02.2013 21:12 0,9 C -0,4 C 98 % 0 lf 1011,6 hPa 0,0 l/m 0 min 0,0 UV-I 0 W/m 5,1 km/h (1 Bft)
07.02.2013 21:14 0,9 C -0,4 C 98 % 0 lf 1011,6 hPa 0,0 l/m 0 min 0,0 UV-I 0 W/m 7,7 km/h (2 Bft)
07.02.2013 21:16 0,9 C -0,4 C 98 % 0 lf 1011,6 hPa 0,0 l/m 0 min 0,0 UV-I 0 W/m 0,0 km/h (0 Bft)
07.02.2013 21:18 0,9 C -0,4 C 98 % 0 lf 1011,6 hPa 0,0 l/m 0 min 0,0 UV-I 0 W/m 10,3 km/h (2 Bft)
07.02.2013 21:20 0,9 C 0,1 C 98 % 0 lf 1011,6 hPa 0,0 l/m 0 min 0,0 UV-I 0 W/m 0,0 km/h (0 Bft)
07.02.2013 21:22 0,9 C 0,1 C 98 % 0 lf 1011,6 hPa 0,0 l/m 0 min 0,0 UV-I 0 W/m 7,7 km/h (2 Bft)
07.02.2013 21:24 0,9 C 0,1 C 98 % 0 lf 1011,6 hPa 0,0 l/m 0 min 0,0 UV-I 0 W/m 5,1 km/h (1 Bft)
07.02.2013 21:26 0,9 C 0,1 C 98 % 0 lf 1011,6 hPa 0,0 l/m 0 min 0,0 UV-I 0 W/m 5,1 km/h (1 Bft)
07.02.2013 21:28 0,9 C 0,1 C 98 % 0 lf 1011,6 hPa 0,0 l/m 0 min 0,0 UV-I 0 W/m 2,6 km/h (1 Bft)
07.02.2013 21:30 0,9 C 0,1 C 98 % 0 lf 1011,6 hPa 0,0 l/m 0 min 0,0 UV-I 0 W/m 0,0 km/h (0 Bft)
07.02.2013 21:32 0,9 C 0,1 C 98 % 0 lf 1011,6 hPa 0,0 l/m 0 min 0,0 UV-I 0 W/m 0,0 km/h (0 Bft)
07.02.2013 21:34 0,9 C 0,1 C 98 % 0 lf 1011,6 hPa 0,0 l/m 0 min 0,0 UV-I 0 W/m 0,0 km/h (0 Bft)
07.02.2013 21:36 0,9 C 0,1 C 98 % 0 lf 1011,6 hPa 0,0 l/m 0 min 0,0 UV-I 0 W/m 5,1 km/h (1 Bft)
07.02.2013 21:38 0,9 C 0,1 C 98 % 0 lf 1011,6 hPa 0,0 l/m 0 min 0,0 UV-I 0 W/m 0,0 km/h (0 Bft)
07.02.2013 21:40 0,9 C 0,1 C 98 % 0 lf 1011,6 hPa 0,0 l/m 0 min 0,0 UV-I 0 W/m 0,0 km/h (0 Bft)
07.02.2013 21:42 0,9 C 0,1 C 98 % 0 lf 1011,7 hPa 0,0 l/m 0 min 0,0 UV-I 0 W/m 5,1 km/h (1 Bft)
07.02.2013 21:44 0,9 C 0,1 C 98 % 0 lf 1011,7 hPa 0,0 l/m 0 min 0,0 UV-I 0 W/m 5,1 km/h (1 Bft)
07.02.2013 21:46 0,9 C 0,1 C 98 % 0 lf 1011,7 hPa 0,0 l/m 0 min 0,0 UV-I 0 W/m 0,0 km/h (0 Bft)
07.02.2013 21:48 0,9 C 0,1 C 98 % 0 lf 1011,6 hPa 0,0 l/m 0 min 0,0 UV-I 0 W/m 2,6 km/h (1 Bft)
07.02.2013 21:50 0,9 C 0,1 C 98 % 0 lf 1011,7 hPa 0,0 l/m 0 min 0,0 UV-I 0 W/m 0,0 km/h (0 Bft)
07.02.2013 21:52 0,9 C 0,1 C 98 % 0 lf 1011,6 hPa 0,0 l/m 0 min 0,0 UV-I 0 W/m 5,1 km/h (1 Bft)
07.02.2013 21:54 0,9 C 0,1 C 98 % 0 lf 1011,6 hPa 0,0 l/m 0 min 0,0 UV-I 0 W/m 0,0 km/h (0 Bft)
07.02.2013 21:56 0,9 C 0,1 C 98 % 0 lf 1011,6 hPa 0,0 l/m 0 min 0,0 UV-I 0 W/m 5,1 km/h (1 Bft)
07.02.2013 21:58 0,9 C 0,1 C 98 % 0 lf 1011,6 hPa 0,0 l/m 0 min 0,0 UV-I 0 W/m 5,1 km/h (1 Bft)
07.02.2013 22:00 0,9 C 0,1 C 98 % 0 lf 1011,6 hPa 0,0 l/m 0 min 0,0 UV-I 0 W/m 0,0 km/h (0 Bft)
07.02.2013 22:02 0,9 C 0,1 C 98 % 0 lf 1011,6 hPa 0,0 l/m 0 min 0,0 UV-I 0 W/m 2,6 km/h (1 Bft)
07.02.2013 22:04 0,9 C 0,1 C 98 % 0 lf 1011,6 hPa 0,0 l/m 0 min 0,0 UV-I 0 W/m 7,7 km/h (2 Bft)
07.02.2013 22:06 0,9 C 0,1 C 98 % 0 lf 1011,6 hPa 0,0 l/m 0 min 0,0 UV-I 0 W/m 15,4 km/h (3 Bft)
07.02.2013 22:08 0,9 C 0,1 C 98 % 0 lf 1011,6 hPa 0,0 l/m 0 min 0,0 UV-I 0 W/m 5,1 km/h (1 Bft)
07.02.2013 22:10 0,9 C 0,1 C 98 % 0 lf 1011,5 hPa 0,0 l/m 0 min 0,0 UV-I 0 W/m 5,1 km/h (1 Bft)
07.02.2013 22:12 0,9 C 0,1 C 98 % 0 lf 1011,5 hPa 0,0 l/m 0 min 0,0 UV-I 0 W/m 10,3 km/h (2 Bft)
07.02.2013 22:14 0,9 C 0,1 C 98 % 0 lf 1011,5 hPa 0,0 l/m 0 min 0,0 UV-I 0 W/m 7,7 km/h (2 Bft)
07.02.2013 22:16 0,9 C 0,1 C 98 % 0 lf 1011,5 hPa 0,0 l/m 0 min 0,0 UV-I 0 W/m 2,6 km/h (1 Bft)
07.02.2013 22:18 1,0 C 0,1 C 98 % 0 lf 1011,5 hPa 0,0 l/m 0 min 0,0 UV-I 0 W/m 0,0 km/h (0 Bft)
07.02.2013 22:20 1,0 C 0,1 C 98 % 0 lf 1011,5 hPa 0,0 l/m 0 min 0,0 UV-I 0 W/m 0,0 km/h (0 Bft)
07.02.2013 22:22 1,0 C 0,1 C 98 % 0 lf 1011,5 hPa 0,0 l/m 0 min 0,0 UV-I 0 W/m 0,0 km/h (0 Bft)
07.02.2013 22:24 1,0 C 0,1 C 98 % 0 lf 1011,5 hPa 0,0 l/m 0 min 0,0 UV-I 0 W/m 10,3 km/h (2 Bft)
07.02.2013 22:26 1,0 C 0,1 C 98 % 0 lf 1011,5 hPa 0,0 l/m 0 min 0,0 UV-I 0 W/m 0,0 km/h (0 Bft)
07.02.2013 22:28 0,9 C 0,1 C 98 % 0 lf 1011,5 hPa 0,0 l/m 0 min 0,0 UV-I 0 W/m 0,0 km/h (0 Bft)
07.02.2013 22:30 0,9 C 0,1 C 98 % 0 lf 1011,5 hPa 0,0 l/m 0 min 0,0 UV-I 0 W/m 7,7 km/h (2 Bft)
07.02.2013 22:32 1,0 C 0,1 C 98 % 0 lf 1011,5 hPa 0,0 l/m 0 min 0,0 UV-I 0 W/m 2,6 km/h (1 Bft)
07.02.2013 22:34 0,9 C 0,1 C 98 % 0 lf 1011,5 hPa 0,0 l/m 0 min 0,0 UV-I 0 W/m 2,6 km/h (1 Bft)
07.02.2013 22:36 0,9 C -0,4 C 98 % 0 lf 1011,5 hPa 0,0 l/m 0 min 0,0 UV-I 0 W/m 0,0 km/h (0 Bft)
07.02.2013 22:38 0,9 C -0,4 C 98 % 0 lf 1011,5 hPa 0,0 l/m 0 min 0,0 UV-I 0 W/m 2,6 km/h (1 Bft)
07.02.2013 22:40 0,9 C 0,1 C 98 % 0 lf 1011,5 hPa 0,0 l/m 0 min 0,0 UV-I 0 W/m 5,1 km/h (1 Bft)
07.02.2013 22:42 0,9 C 0,1 C 98 % 0 lf 1011,5 hPa 0,0 l/m 0 min 0,0 UV-I 0 W/m 7,7 km/h (2 Bft)
07.02.2013 22:44 0,9 C 0,1 C 98 % 0 lf 1011,5 hPa 0,0 l/m 0 min 0,0 UV-I 0 W/m 0,0 km/h (0 Bft)
07.02.2013 22:46 0,9 C 0,1 C 98 % 0 lf 1011,5 hPa 0,0 l/m 0 min 0,0 UV-I 0 W/m 12,9 km/h (3 Bft)
07.02.2013 22:48 0,9 C 0,1 C 98 % 0 lf 1011,5 hPa 0,0 l/m 0 min 0,0 UV-I 0 W/m 0,0 km/h (0 Bft)
07.02.2013 22:50 0,9 C 0,1 C 98 % 0 lf 1011,5 hPa 0,0 l/m 0 min 0,0 UV-I 0 W/m 10,3 km/h (2 Bft)
07.02.2013 22:52 0,9 C 0,1 C 98 % 0 lf 1011,5 hPa 0,0 l/m 0 min 0,0 UV-I 0 W/m 10,3 km/h (2 Bft)
07.02.2013 22:54 0,9 C 0,1 C 98 % 0 lf 1011,5 hPa 0,0 l/m 0 min 0,0 UV-I 0 W/m 0,0 km/h (0 Bft)
07.02.2013 22:56 0,9 C 0,1 C 98 % 0 lf 1011,5 hPa 0,0 l/m 0 min 0,0 UV-I 0 W/m 7,7 km/h (2 Bft)
07.02.2013 22:58 0,9 C 0,1 C 98 % 0 lf 1011,5 hPa 0,0 l/m 0 min 0,0 UV-I 0 W/m 10,3 km/h (2 Bft)
07.02.2013 23:00 0,9 C 0,1 C 98 % 0 lf 1011,5 hPa 0,0 l/m 0 min 0,0 UV-I 0 W/m 10,3 km/h (2 Bft)
07.02.2013 23:02 0,9 C 0,1 C 98 % 0 lf 1011,5 hPa 0,0 l/m 0 min 0,0 UV-I 0 W/m 12,9 km/h (3 Bft)
07.02.2013 23:04 0,9 C 0,1 C 98 % 0 lf 1011,5 hPa 0,0 l/m 0 min 0,0 UV-I 0 W/m 7,7 km/h (2 Bft)
07.02.2013 23:06 0,9 C 0,1 C 98 % 0 lf 1011,5 hPa 0,0 l/m 0 min 0,0 UV-I 0 W/m 7,7 km/h (2 Bft)
07.02.2013 23:08 0,9 C 0,1 C 98 % 0 lf 1011,5 hPa 0,0 l/m 0 min 0,0 UV-I 0 W/m 7,7 km/h (2 Bft)
07.02.2013 23:10 0,9 C 0,1 C 98 % 0 lf 1011,4 hPa 0,0 l/m 0 min 0,0 UV-I 0 W/m 7,7 km/h (2 Bft)
07.02.2013 23:12 0,9 C 0,1 C 98 % 0 lf 1011,4 hPa 0,0 l/m 0 min 0,0 UV-I 0 W/m 7,7 km/h (2 Bft)
07.02.2013 23:14 0,9 C 0,1 C 98 % 0 lf 1011,4 hPa 0,0 l/m 0 min 0,0 UV-I 0 W/m 5,1 km/h (1 Bft)
07.02.2013 23:16 0,9 C -0,4 C 98 % 0 lf 1011,5 hPa 0,0 l/m 0 min 0,0 UV-I 0 W/m 2,6 km/h (1 Bft)
07.02.2013 23:18 0,9 C -0,4 C 98 % 0 lf 1011,5 hPa 0,0 l/m 0 min 0,0 UV-I 0 W/m 12,9 km/h (3 Bft)
07.02.2013 23:20 0,9 C -0,4 C 98 % 0 lf 1011,5 hPa 0,0 l/m 0 min 0,0 UV-I 0 W/m 0,0 km/h (0 Bft)
07.02.2013 23:22 0,9 C -0,4 C 98 % 0 lf 1011,5 hPa 0,0 l/m 0 min 0,0 UV-I 0 W/m 12,9 km/h (3 Bft)
07.02.2013 23:24 0,9 C 0,1 C 98 % 0 lf 1011,5 hPa 0,0 l/m 0 min 0,0 UV-I 0 W/m 7,7 km/h (2 Bft)
07.02.2013 23:26 0,9 C -0,4 C 98 % 0 lf 1011,5 hPa 0,0 l/m 0 min 0,0 UV-I 0 W/m 10,3 km/h (2 Bft)
07.02.2013 23:28 0,9 C -0,4 C 98 % 0 lf 1011,5 hPa 0,0 l/m 0 min 0,0 UV-I 0 W/m 0,0 km/h (0 Bft)
07.02.2013 23:30 0,9 C -0,4 C 98 % 0 lf 1011,5 hPa 0,0 l/m 0 min 0,0 UV-I 0 W/m 0,0 km/h (0 Bft)
07.02.2013 23:32 0,9 C -0,4 C 98 % 0 lf 1011,5 hPa 0,0 l/m 0 min 0,0 UV-I 0 W/m 10,3 km/h (2 Bft)
07.02.2013 23:34 0,8 C -0,4 C 98 % 0 lf 1011,5 hPa 0,0 l/m 0 min 0,0 UV-I 0 W/m 2,6 km/h (1 Bft)
07.02.2013 23:36 0,8 C -0,4 C 98 % 0 lf 1011,5 hPa 0,0 l/m 0 min 0,0 UV-I 0 W/m 7,7 km/h (2 Bft)
07.02.2013 23:38 0,8 C -0,4 C 98 % 0 lf 1011,4 hPa 0,0 l/m 0 min 0,0 UV-I 0 W/m 7,7 km/h (2 Bft)
07.02.2013 23:40 0,8 C -0,4 C 98 % 0 lf 1011,4 hPa 0,0 l/m 0 min 0,0 UV-I 0 W/m 7,7 km/h (2 Bft)
07.02.2013 23:42 0,8 C -0,4 C 98 % 0 lf 1011,5 hPa 0,0 l/m 0 min 0,0 UV-I 0 W/m 0,0 km/h (0 Bft)
07.02.2013 23:44 0,8 C -0,4 C 98 % 0 lf 1011,5 hPa 0,0 l/m 0 min 0,0 UV-I 0 W/m 10,3 km/h (2 Bft)
07.02.2013 23:46 0,8 C -0,4 C 98 % 0 lf 1011,5 hPa 0,0 l/m 0 min 0,0 UV-I 0 W/m 10,3 km/h (2 Bft)
07.02.2013 23:48 0,8 C -0,4 C 98 % 0 lf 1011,5 hPa 0,0 l/m 0 min 0,0 UV-I 0 W/m 0,0 km/h (0 Bft)
07.02.2013 23:50 0,8 C -0,4 C 98 % 0 lf 1011,5 hPa 0,0 l/m 0 min 0,0 UV-I 0 W/m 7,7 km/h (2 Bft)
07.02.2013 23:52 0,8 C -0,4 C 98 % 0 lf 1011,5 hPa 0,0 l/m 0 min 0,0 UV-I 0 W/m 0,0 km/h (0 Bft)
07.02.2013 23:54 0,8 C -0,4 C 98 % 0 lf 1011,5 hPa 0,0 l/m 0 min 0,0 UV-I 0 W/m 10,3 km/h (2 Bft)
07.02.2013 23:56 0,8 C -0,4 C 98 % 0 lf 1011,5 hPa 0,0 l/m 0 min 0,0 UV-I 0 W/m 5,1 km/h (1 Bft)
07.02.2013 23:58 0,8 C -0,4 C 98 % 0 lf 1011,5 hPa 0,0 l/m 0 min 0,0 UV-I 0 W/m 7,7 km/h (2 Bft)
_ Min-Zeit 03:42 00:06 14:16 04:14 00:00 - - - - 00:02
Minimum _ 0,6 C -1,0 C 84 % 0 lf 1006,2 hPa - - - - 0,0 km/h (0 Bft)
_ Max-Zeit 14:04 13:06 00:00 00:00 21:42 07:12 10:24 00:00 13:08 08:56
Maximum _ 4,3 C 3,4 C 98 % 15 lf 1011,7 hPa 0,2 l/m 2 min 0,0 UV-I 480 W/m 20,6 km/h
NW (4 Bft)
Durchschnitt _ 1,6 C 0,3 C 95 % 4 lf 1009,7 hPa #0,2 l/m #1:50 h 0,0 UV-I 113 W/m 5,6 km/h (1 Bft)
© 2013 W. Hausmann